Time,TemperatureF,DewpointF,PressureIn,WindDirection,WindDirectionDegrees,WindSpeedMPH,WindSpeedGustMPH,Humidity,HourlyPrecipIn,Conditions,Clouds,dailyrainin,SolarRadiationWatts/m^2,SoftwareType,DateUTC
2013-01-16 00:00:00,24.1,16.4,30.06,South,189,0.0,2.0,72,0.00,,SCT055,0.00,0.00,VWS V14.01,2013-01-16 04:00:00,
2013-01-16 00:02:00,25.0,17.3,30.08,South,184,0.0,0.0,72,0.00,,CLR,0.00,,VWS V13.01,2013-01-16 04:02:00,
2013-01-16 00:04:00,25.0,17.3,30.08,South,184,0.0,2.0,72,0.00,,CLR,0.00,,VWS V13.01,2013-01-16 04:04:00,
2013-01-16 00:07:00,25.0,17.3,30.08,South,186,0.0,4.0,72,0.00,,CLR,0.00,,VWS V13.01,2013-01-16 04:07:00,
2013-01-16 00:09:00,25.0,17.3,30.08,South,186,0.0,0.0,72,0.00,,CLR,0.00,,VWS V13.01,2013-01-16 04:09:00,
2013-01-16 00:10:00,25.0,17.3,30.08,South,186,6.0,6.0,72,0.00,,CLR,0.00,,VWS V13.01,2013-01-16 04:10:00,
2013-01-16 00:12:00,25.0,17.3,30.08,South,186,0.0,4.0,72,0.00,,CLR,0.00,,VWS V13.01,2013-01-16 04:12:00,
2013-01-16 00:14:00,25.0,17.3,30.08,South,186,0.0,0.0,72,0.00,,CLR,0.00,,VWS V13.01,2013-01-16 04:14:00,
2013-01-16 00:15:00,25.0,17.3,30.08,South,186,0.0,0.0,72,0.00,,CLR,0.00,,VWS V13.01,2013-01-16 04:15:00,
2013-01-16 00:16:00,25.0,17.3,30.08,South,186,0.0,0.0,72,0.00,,CLR,0.00,,VWS V13.01,2013-01-16 04:16:00,
2013-01-16 00:17:00,24.8,17.1,30.08,South,186,0.0,2.0,72,0.00,,CLR,0.00,,VWS V13.01,2013-01-16 04:17:00,
2013-01-16 00:20:00,24.8,17.1,30.08,South,186,0.0,0.0,72,0.00,,CLR,0.00,,VWS V13.01,2013-01-16 04:20:00,
2013-01-16 00:21:00,24.8,17.1,30.08,SSE,151,0.0,12.0,72,0.00,,CLR,0.00,,VWS V13.01,2013-01-16 04:21:00,
2013-01-16 00:23:00,24.8,17.1,30.08,SSE,151,0.0,0.0,72,0.00,,CLR,0.00,,VWS V13.01,2013-01-16 04:23:00,
2013-01-16 00:25:00,24.8,17.1,30.08,SSE,151,0.0,2.0,72,0.00,,CLR,0.00,,VWS V13.01,2013-01-16 04:25:00,
2013-01-16 00:26:00,24.8,17.1,30.08,SSE,151,0.0,2.0,72,0.00,,CLR,0.00,,VWS V13.01,2013-01-16 04:26:00,
2013-01-16 00:28:00,24.7,17.0,30.08,SSE,151,0.0,0.0,72,0.00,,CLR,0.00,,VWS V13.01,2013-01-16 04:28:00,
2013-01-16 00:30:00,24.7,17.0,30.08,SSE,154,0.0,0.0,72,0.00,,CLR,0.00,,VWS V13.01,2013-01-16 04:30:00,
2013-01-16 00:31:00,24.5,16.8,30.07,ENE,62,0.0,2.0,72,0.00,,CLR,0.00,,VWS V13.01,2013-01-16 04:31:00,
2013-01-16 00:33:00,24.5,16.8,30.07,East,88,0.0,0.0,72,0.00,,CLR,0.00,,VWS V13.01,2013-01-16 04:33:00,
2013-01-16 00:35:00,24.5,16.8,30.07,South,174,0.0,8.0,72,0.00,,CLR,0.00,,VWS V13.01,2013-01-16 04:35:00,
2013-01-16 00:37:00,24.5,16.8,30.07,South,182,0.0,2.0,72,0.00,,CLR,0.00,,VWS V13.01,2013-01-16 04:37:00,
2013-01-16 00:38:00,24.5,16.8,30.07,South,182,0.0,2.0,72,0.00,,CLR,0.00,,VWS V13.01,2013-01-16 04:38:00,
2013-01-16 00:40:00,24.4,16.7,30.07,South,182,0.0,4.0,72,0.00,,CLR,0.00,,VWS V13.01,2013-01-16 04:40:00,
2013-01-16 00:42:00,24.4,16.7,30.07,South,182,0.0,4.0,72,0.00,,CLR,0.00,,VWS V13.01,2013-01-16 04:42:00,
2013-01-16 00:43:00,24.4,16.7,30.07,SSE,154,2.0,12.0,72,0.00,,CLR,0.00,,VWS V13.01,2013-01-16 04:43:00,
2013-01-16 00:45:00,24.4,16.7,30.07,SSE,147,4.0,12.0,72,0.00,,CLR,0.00,,VWS V13.01,2013-01-16 04:45:00,
2013-01-16 00:48:00,24.4,16.7,30.06,SSE,164,0.0,0.0,72,0.00,,CLR,0.00,,VWS V13.01,2013-01-16 04:48:00,
2013-01-16 00:50:00,24.2,16.5,30.06,South,175,0.0,6.0,72,0.00,,CLR,0.00,,VWS V13.01,2013-01-16 04:50:00,
2013-01-16 00:51:00,24.2,16.5,30.06,South,182,0.0,12.0,72,0.00,,CLR,0.00,,VWS V13.01,2013-01-16 04:51:00,
2013-01-16 00:54:00,24.2,16.5,30.06,South,181,2.0,10.0,72,0.00,,CLR,0.00,,VWS V13.01,2013-01-16 04:54:00,
2013-01-16 00:55:00,24.2,16.5,30.06,South,181,0.0,4.0,72,0.00,,CLR,0.00,,VWS V13.01,2013-01-16 04:55:00,
2013-01-16 00:56:00,24.2,16.5,30.06,South,181,0.0,2.0,72,0.00,,CLR,0.00,,VWS V13.01,2013-01-16 04:56:00,
2013-01-16 00:59:00,24.2,16.5,30.06,South,189,0.0,2.0,72,0.00,,CLR,0.00,,VWS V13.01,2013-01-16 04:59:00,
2013-01-16 01:00:00,24.2,16.5,30.06,South,189,0.0,2.0,72,0.00,,CLR,0.00,,VWS V13.01,2013-01-16 05:00:00,
2013-01-16 01:01:00,24.1,16.4,30.06,South,189,0.0,2.0,72,0.00,,CLR,0.00,,VWS V13.01,2013-01-16 05:01:00,
2013-01-16 01:03:00,24.1,16.4,30.06,South,169,0.0,6.0,72,0.00,,CLR,0.00,,VWS V13.01,2013-01-16 05:03:00,
2013-01-16 01:05:00,24.1,16.4,30.06,SSE,155,0.0,10.0,72,0.00,,CLR,0.00,,VWS V13.01,2013-01-16 05:05:00,
2013-01-16 01:07:00,24.1,16.4,30.06,SSE,165,0.0,6.0,72,0.00,,CLR,0.00,,VWS V13.01,2013-01-16 05:07:00,
2013-01-16 01:08:00,24.1,16.4,30.06,SE,140,2.0,4.0,72,0.00,,CLR,0.00,,VWS V13.01,2013-01-16 05:08:00,
2013-01-16 01:11:00,23.9,16.2,30.06,SSW,195,0.0,6.0,72,0.00,,CLR,0.00,,VWS V13.01,2013-01-16 05:11:00,
2013-01-16 01:12:00,23.9,16.2,30.06,South,184,6.0,10.0,72,0.00,,CLR,0.00,,VWS V13.01,2013-01-16 05:12:00,
2013-01-16 01:13:00,23.9,16.5,30.06,South,184,0.0,10.0,73,0.00,,CLR,0.00,,VWS V13.01,2013-01-16 05:13:00,
2013-01-16 01:16:00,23.8,16.4,30.05,South,184,0.0,2.0,73,0.00,,CLR,0.00,,VWS V13.01,2013-01-16 05:16:00,
2013-01-16 01:18:00,23.8,16.4,30.05,South,184,0.0,2.0,73,0.00,,CLR,0.00,,VWS V13.01,2013-01-16 05:18:00,
2013-01-16 01:19:00,23.8,16.4,30.05,South,185,0.0,4.0,73,0.00,,CLR,0.00,,VWS V13.01,2013-01-16 05:19:00,
2013-01-16 01:21:00,23.8,16.4,30.05,South,185,0.0,2.0,73,0.00,,CLR,0.00,,VWS V13.01,2013-01-16 05:21:00,
2013-01-16 01:23:00,23.8,16.4,30.05,South,184,0.0,4.0,73,0.00,,CLR,0.00,,VWS V13.01,2013-01-16 05:23:00,
2013-01-16 01:24:00,23.8,16.4,30.05,South,184,0.0,4.0,73,0.00,,CLR,0.00,,VWS V13.01,2013-01-16 05:24:00,
2013-01-16 01:27:00,23.8,16.4,30.05,South,184,0.0,2.0,73,0.00,,CLR,0.00,,VWS V13.01,2013-01-16 05:27:00,
2013-01-16 01:29:00,23.6,16.2,30.05,South,184,0.0,2.0,73,0.00,,CLR,0.00,,VWS V13.01,2013-01-16 05:29:00,
2013-01-16 01:30:00,23.8,16.4,30.02,SW,227,0.0,4.0,73,0.00,,SCT055,0.00,0.00,VWS V14.01,2013-01-16 05:30:00,
2013-01-16 01:32:00,23.6,16.2,30.05,South,184,0.0,2.0,73,0.00,,CLR,0.00,,VWS V13.01,2013-01-16 05:32:00,
2013-01-16 01:34:00,23.6,16.2,30.05,SE,130,2.0,14.0,73,0.00,,CLR,0.00,,VWS V13.01,2013-01-16 05:34:00,
2013-01-16 01:38:00,23.6,16.5,30.05,SSE,148,0.0,0.0,74,0.00,,CLR,0.00,,VWS V13.01,2013-01-16 05:38:00,
2013-01-16 01:39:00,23.6,16.5,30.05,SSE,147,0.0,2.0,74,0.00,,CLR,0.00,,VWS V13.01,2013-01-16 05:39:00,
2013-01-16 01:40:00,23.6,16.5,30.05,SSE,147,0.0,2.0,74,0.00,,CLR,0.00,,VWS V13.01,2013-01-16 05:40:00,
2013-01-16 01:43:00,23.6,16.5,30.05,South,188,0.0,4.0,74,0.00,,CLR,0.00,,VWS V13.01,2013-01-16 05:43:00,
2013-01-16 01:45:00,23.6,16.5,30.05,SW,229,0.0,8.0,74,0.00,,CLR,0.00,,VWS V13.01,2013-01-16 05:45:00,
2013-01-16 01:49:00,23.8,16.7,30.04,SW,222,0.0,2.0,74,0.00,,CLR,0.00,,VWS V13.01,2013-01-16 05:49:00,
2013-01-16 01:50:00,23.8,16.7,30.04,South,189,4.0,10.0,74,0.00,,CLR,0.00,,VWS V13.01,2013-01-16 05:50:00,
2013-01-16 01:51:00,23.8,16.7,30.04,South,169,6.0,10.0,74,0.00,,CLR,0.00,,VWS V13.01,2013-01-16 05:51:00,
2013-01-16 01:54:00,23.8,16.7,30.04,SW,224,0.0,10.0,74,0.00,,CLR,0.00,,VWS V13.01,2013-01-16 05:54:00,
2013-01-16 01:55:00,23.8,16.7,30.04,SW,229,8.0,10.0,74,0.00,,CLR,0.00,,VWS V13.01,2013-01-16 05:55:00,
2013-01-16 01:56:00,23.8,16.4,30.04,SW,229,4.0,10.0,73,0.00,,CLR,0.00,,VWS V13.01,2013-01-16 05:56:00,
2013-01-16 01:59:00,23.9,16.5,30.04,SW,232,0.0,4.0,73,0.00,,CLR,0.00,,VWS V13.01,2013-01-16 05:59:00,
2013-01-16 02:00:00,23.9,16.5,30.04,SW,232,0.0,6.0,73,0.00,,CLR,0.00,,VWS V13.01,2013-01-16 06:00:00,
2013-01-16 02:01:00,23.9,16.5,30.03,SW,217,0.0,6.0,73,0.00,,CLR,0.00,,VWS V13.01,2013-01-16 06:01:00,
2013-01-16 02:05:00,23.9,16.5,30.03,SW,220,2.0,4.0,73,0.00,,CLR,0.00,,VWS V13.01,2013-01-16 06:05:00,
2013-01-16 02:06:00,23.9,16.5,30.03,SSE,162,0.0,4.0,73,0.00,,CLR,0.00,,VWS V13.01,2013-01-16 06:06:00,
2013-01-16 02:10:00,23.9,16.5,30.03,South,188,0.0,6.0,73,0.00,,CLR,0.00,,VWS V13.01,2013-01-16 06:10:00,
2013-01-16 02:11:00,23.9,16.5,30.03,SSW,210,0.0,6.0,73,0.00,,CLR,0.00,,VWS V13.01,2013-01-16 06:11:00,
2013-01-16 02:15:00,23.9,16.5,30.03,SSW,210,0.0,0.0,73,0.00,,CLR,0.00,,VWS V13.01,2013-01-16 06:15:00,
2013-01-16 02:16:00,23.9,16.5,30.02,SSW,210,0.0,0.0,73,0.00,,CLR,0.00,,VWS V13.01,2013-01-16 06:16:00,
2013-01-16 02:17:00,23.8,16.4,30.02,SSW,210,0.0,0.0,73,0.00,,CLR,0.00,,VWS V13.01,2013-01-16 06:17:00,
2013-01-16 02:20:00,23.8,16.4,30.02,SSW,210,0.0,0.0,73,0.00,,CLR,0.00,,VWS V13.01,2013-01-16 06:20:00,
2013-01-16 02:21:00,23.8,16.4,30.02,SSE,167,0.0,10.0,73,0.00,,CLR,0.00,,VWS V13.01,2013-01-16 06:21:00,
2013-01-16 02:23:00,23.8,16.4,30.02,SE,140,2.0,6.0,73,0.00,,CLR,0.00,,VWS V13.01,2013-01-16 06:23:00,
2013-01-16 02:25:00,23.8,16.4,30.02,South,179,0.0,4.0,73,0.00,,CLR,0.00,,VWS V13.01,2013-01-16 06:25:00,
2013-01-16 02:26:00,23.8,16.4,30.02,South,179,0.0,2.0,73,0.00,,CLR,0.00,,VWS V13.01,2013-01-16 06:26:00,
2013-01-16 02:28:00,23.8,16.4,30.02,WSW,253,0.0,4.0,73,0.00,,CLR,0.00,,VWS V13.01,2013-01-16 06:28:00,
2013-01-16 02:30:00,23.8,16.4,30.02,SW,227,0.0,4.0,73,0.00,,CLR,0.00,,VWS V13.01,2013-01-16 06:30:00,
2013-01-16 02:31:00,23.8,16.4,30.02,SW,227,0.0,4.0,73,0.00,,CLR,0.00,,VWS V13.01,2013-01-16 06:31:00,
2013-01-16 02:32:00,23.8,16.4,30.02,SW,227,0.0,6.0,73,0.00,,CLR,0.00,,VWS V13.01,2013-01-16 06:32:00,
2013-01-16 02:35:00,23.9,16.5,30.02,SW,222,0.0,10.0,73,0.00,,CLR,0.00,,VWS V13.01,2013-01-16 06:35:00,
2013-01-16 02:36:00,23.9,16.5,30.02,SW,220,0.0,8.0,73,0.00,,CLR,0.00,,VWS V13.01,2013-01-16 06:36:00,
2013-01-16 02:38:00,23.9,16.5,30.02,SW,224,0.0,6.0,73,0.00,,CLR,0.00,,VWS V13.01,2013-01-16 06:38:00,
2013-01-16 02:40:00,23.9,16.5,30.02,SSW,209,0.0,2.0,73,0.00,,CLR,0.00,,VWS V13.01,2013-01-16 06:40:00,
2013-01-16 02:41:00,23.9,16.5,30.02,SSW,209,2.0,2.0,73,0.00,,CLR,0.00,,VWS V13.01,2013-01-16 06:41:00,
2013-01-16 02:44:00,23.9,16.5,30.02,WSW,244,0.0,12.0,73,0.00,,CLR,0.00,,VWS V13.01,2013-01-16 06:44:00,
2013-01-16 02:45:00,23.9,16.5,30.02,SW,236,0.0,2.0,73,0.00,,CLR,0.00,,VWS V13.01,2013-01-16 06:45:00,
2013-01-16 02:46:00,23.9,16.5,30.02,SW,236,4.0,4.0,73,0.00,,CLR,0.00,,VWS V13.01,2013-01-16 06:46:00,
2013-01-16 02:47:00,23.9,16.5,30.02,SW,233,2.0,6.0,73,0.00,,CLR,0.00,,VWS V13.01,2013-01-16 06:47:00,
2013-01-16 02:49:00,23.9,16.5,30.02,SW,233,0.0,6.0,73,0.00,,CLR,0.00,,VWS V13.01,2013-01-16 06:49:00,
2013-01-16 02:51:00,23.9,16.5,30.02,SW,233,0.0,0.0,73,0.00,,CLR,0.00,,VWS V13.01,2013-01-16 06:51:00,
2013-01-16 02:54:00,23.9,16.5,30.02,SW,224,2.0,4.0,73,0.00,,CLR,0.00,,VWS V13.01,2013-01-16 06:54:00,
2013-01-16 02:56:00,23.9,16.5,30.02,SW,224,2.0,6.0,73,0.00,,CLR,0.00,,VWS V13.01,2013-01-16 06:56:00,
2013-01-16 02:57:00,23.9,16.5,30.02,SW,223,0.0,8.0,73,0.00,,CLR,0.00,,VWS V13.01,2013-01-16 06:57:00,
2013-01-16 02:59:00,23.9,16.5,30.02,SW,223,0.0,4.0,73,0.00,,CLR,0.00,,VWS V13.01,2013-01-16 06:59:00,
2013-01-16 03:00:00,24.1,16.7,30.02,SSW,213,2.0,10.0,73,0.00,,CLR,0.00,,VWS V13.01,2013-01-16 07:00:00,
2013-01-16 03:01:00,24.1,16.7,30.01,SSW,213,0.0,10.0,73,0.00,,CLR,0.00,,VWS V13.01,2013-01-16 07:01:00,
2013-01-16 03:02:00,24.1,16.7,30.01,SSW,213,0.0,4.0,73,0.00,,CLR,0.00,,VWS V13.01,2013-01-16 07:02:00,
2013-01-16 03:05:00,24.1,16.7,30.01,SSW,213,0.0,4.0,73,0.00,,CLR,0.00,,VWS V13.01,2013-01-16 07:05:00,
2013-01-16 03:06:00,24.1,16.7,30.01,SSW,213,2.0,4.0,73,0.00,,CLR,0.00,,VWS V13.01,2013-01-16 07:06:00,
2013-01-16 03:08:00,24.1,16.4,30.01,SSW,213,0.0,6.0,72,0.00,,CLR,0.00,,VWS V13.01,2013-01-16 07:08:00,
2013-01-16 03:10:00,24.1,16.4,30.01,South,174,0.0,10.0,72,0.00,,CLR,0.00,,VWS V13.01,2013-01-16 07:10:00,
2013-01-16 03:11:00,24.1,16.7,30.01,South,174,0.0,10.0,73,0.00,,CLR,0.00,,VWS V13.01,2013-01-16 07:11:00,
2013-01-16 03:13:00,24.1,16.4,30.01,SW,215,6.0,8.0,72,0.00,,CLR,0.00,,VWS V13.01,2013-01-16 07:13:00,
2013-01-16 03:15:00,24.1,16.4,30.01,SSE,160,6.0,8.0,72,0.00,,CLR,0.00,,VWS V13.01,2013-01-16 07:15:00,
2013-01-16 03:16:00,24.1,16.4,30.00,SSW,195,2.0,6.0,72,0.00,,CLR,0.00,,VWS V13.01,2013-01-16 07:16:00,
2013-01-16 03:17:00,24.1,16.4,30.00,SSW,195,0.0,6.0,72,0.00,,CLR,0.00,,VWS V13.01,2013-01-16 07:17:00,
2013-01-16 03:18:00,24.1,16.4,30.00,SSW,195,0.0,2.0,72,0.00,,CLR,0.00,,VWS V13.01,2013-01-16 07:18:00,
2013-01-16 03:20:00,24.1,16.4,30.00,SSW,200,2.0,12.0,72,0.00,,CLR,0.00,,VWS V13.01,2013-01-16 07:20:00,
2013-01-16 03:21:00,24.1,16.4,30.00,SSW,200,0.0,12.0,72,0.00,,CLR,0.00,,VWS V13.01,2013-01-16 07:21:00,
2013-01-16 03:23:00,24.1,16.4,30.00,SW,220,10.0,12.0,72,0.00,,CLR,0.00,,VWS V13.01,2013-01-16 07:23:00,
2013-01-16 03:25:00,24.1,16.4,30.00,SSW,193,0.0,4.0,72,0.00,,CLR,0.00,,VWS V13.01,2013-01-16 07:25:00,
2013-01-16 03:26:00,24.1,16.4,30.00,SSW,193,0.0,4.0,72,0.00,,CLR,0.00,,VWS V13.01,2013-01-16 07:26:00,
2013-01-16 03:28:00,24.1,16.4,30.00,SSW,193,0.0,0.0,72,0.00,,CLR,0.00,,VWS V13.01,2013-01-16 07:28:00,
2013-01-16 03:29:00,23.9,16.2,30.00,SSW,193,0.0,2.0,72,0.00,,CLR,0.00,,VWS V13.01,2013-01-16 07:29:00,
2013-01-16 03:30:00,23.9,16.2,30.00,South,176,0.0,12.0,72,0.00,,CLR,0.00,,VWS V13.01,2013-01-16 07:30:00,
2013-01-16 03:32:00,23.9,16.2,29.99,South,176,0.0,12.0,72,0.00,,CLR,0.00,,VWS V13.01,2013-01-16 07:32:00,
2013-01-16 03:33:00,23.9,16.2,29.99,SSE,167,0.0,12.0,72,0.00,,CLR,0.00,,VWS V13.01,2013-01-16 07:33:00,
2013-01-16 03:34:00,23.9,16.2,29.99,South,175,0.0,12.0,72,0.00,,CLR,0.00,,VWS V13.01,2013-01-16 07:34:00,
2013-01-16 03:35:00,23.9,16.2,29.99,SSE,158,10.0,12.0,72,0.00,,CLR,0.00,,VWS V13.01,2013-01-16 07:35:00,
2013-01-16 03:37:00,23.9,16.2,29.99,SW,230,0.0,10.0,72,0.00,,CLR,0.00,,VWS V13.01,2013-01-16 07:37:00,
2013-01-16 03:38:00,23.9,16.2,29.99,SW,227,0.0,2.0,72,0.00,,CLR,0.00,,VWS V13.01,2013-01-16 07:38:00,
2013-01-16 03:40:00,23.9,16.2,29.99,SW,227,0.0,0.0,72,0.00,,CLR,0.00,,VWS V13.01,2013-01-16 07:40:00,
2013-01-16 03:41:00,23.8,16.1,29.99,South,171,0.0,0.0,72,0.00,,CLR,0.00,,VWS V13.01,2013-01-16 07:41:00,
2013-01-16 03:43:00,23.8,16.1,29.99,South,181,0.0,4.0,72,0.00,,CLR,0.00,,VWS V13.01,2013-01-16 07:43:00,
2013-01-16 03:45:00,23.8,16.1,29.98,South,175,0.0,4.0,72,0.00,,CLR,0.00,,VWS V13.01,2013-01-16 07:45:00,
2013-01-16 03:46:00,23.8,16.1,29.98,SSE,168,4.0,4.0,72,0.00,,CLR,0.00,,VWS V13.01,2013-01-16 07:46:00,
2013-01-16 03:48:00,23.6,15.9,29.98,South,184,4.0,6.0,72,0.00,,CLR,0.00,,VWS V13.01,2013-01-16 07:48:00,
2013-01-16 03:49:00,23.8,16.1,29.98,SE,130,0.0,6.0,72,0.00,,CLR,0.00,,VWS V13.01,2013-01-16 07:49:00,
2013-01-16 03:51:00,23.6,15.9,29.98,SE,138,0.0,0.0,72,0.00,,CLR,0.00,,VWS V13.01,2013-01-16 07:51:00,
2013-01-16 03:53:00,23.6,15.9,29.98,SE,143,0.0,2.0,72,0.00,,CLR,0.00,,VWS V13.01,2013-01-16 07:53:00,
2013-01-16 03:54:00,23.6,15.9,29.98,SE,144,0.0,2.0,72,0.00,,CLR,0.00,,VWS V13.01,2013-01-16 07:54:00,
2013-01-16 03:56:00,23.6,16.2,29.98,SE,144,0.0,0.0,73,0.00,,CLR,0.00,,VWS V13.01,2013-01-16 07:56:00,
2013-01-16 03:58:00,23.5,16.1,29.98,SE,144,2.0,2.0,73,0.00,,CLR,0.00,,VWS V13.01,2013-01-16 07:58:00,
2013-01-16 04:00:00,23.5,16.1,29.98,WSW,237,0.0,6.0,73,0.00,,CLR,0.00,,VWS V13.01,2013-01-16 08:00:00,
2013-01-16 04:01:00,23.5,16.1,29.98,South,182,0.0,8.0,73,0.00,,CLR,0.00,,VWS V13.01,2013-01-16 08:01:00,
2013-01-16 04:04:00,23.5,16.1,29.98,South,182,0.0,2.0,73,0.00,,CLR,0.00,,VWS V13.01,2013-01-16 08:04:00,
2013-01-16 04:05:00,23.5,16.1,29.98,WSW,258,0.0,6.0,73,0.00,,CLR,0.00,,VWS V13.01,2013-01-16 08:05:00,
2013-01-16 04:06:00,23.5,16.1,29.98,WSW,258,0.0,6.0,73,0.00,,CLR,0.00,,VWS V13.01,2013-01-16 08:06:00,
2013-01-16 04:07:00,23.5,16.1,29.98,WSW,258,0.0,6.0,73,0.00,,CLR,0.00,,VWS V13.01,2013-01-16 08:07:00,
2013-01-16 04:09:00,23.5,16.1,29.98,SSW,203,0.0,6.0,73,0.00,,CLR,0.00,,VWS V13.01,2013-01-16 08:09:00,
2013-01-16 04:10:00,23.3,15.9,29.98,SSW,203,0.0,2.0,73,0.00,,CLR,0.00,,VWS V13.01,2013-01-16 08:10:00,
2013-01-16 04:12:00,23.3,15.9,29.98,SSW,209,2.0,4.0,73,0.00,,CLR,0.00,,VWS V13.01,2013-01-16 08:12:00,
2013-01-16 04:14:00,23.3,15.9,29.98,SSW,209,0.0,2.0,73,0.00,,CLR,0.00,,VWS V13.01,2013-01-16 08:14:00,
2013-01-16 04:15:00,23.3,15.9,29.99,SSW,209,0.0,0.0,73,0.00,,CLR,0.00,,VWS V13.01,2013-01-16 08:15:00,
2013-01-16 04:17:00,23.3,15.9,29.99,SSW,212,0.0,4.0,73,0.00,,CLR,0.00,,VWS V13.01,2013-01-16 08:17:00,
2013-01-16 04:20:00,23.2,15.8,29.99,SSW,212,0.0,0.0,73,0.00,,CLR,0.00,,VWS V13.01,2013-01-16 08:20:00,
2013-01-16 04:22:00,23.2,15.8,29.99,SSW,212,0.0,0.0,73,0.00,,CLR,0.00,,VWS V13.01,2013-01-16 08:22:00,
2013-01-16 04:23:00,23.2,15.8,29.99,SSW,212,0.0,0.0,73,0.00,,CLR,0.00,,VWS V13.01,2013-01-16 08:23:00,
2013-01-16 04:25:00,23.0,15.6,29.99,South,185,0.0,2.0,73,0.00,,CLR,0.00,,VWS V13.01,2013-01-16 08:25:00,
2013-01-16 04:26:00,23.0,15.6,29.99,South,185,0.0,2.0,73,0.00,,CLR,0.00,,VWS V13.01,2013-01-16 08:26:00,
2013-01-16 04:28:00,23.0,15.6,29.99,South,178,0.0,6.0,73,0.00,,CLR,0.00,,VWS V13.01,2013-01-16 08:28:00,
2013-01-16 04:30:00,23.0,15.6,29.98,SSE,152,2.0,8.0,73,0.00,,CLR,0.00,,VWS V13.01,2013-01-16 08:30:00,
2013-01-16 04:31:00,23.0,15.6,29.98,SSE,152,0.0,2.0,73,0.00,,CLR,0.00,,VWS V13.01,2013-01-16 08:31:00,
2013-01-16 04:33:00,23.0,15.6,29.98,SSE,167,0.0,6.0,73,0.00,,CLR,0.00,,VWS V13.01,2013-01-16 08:33:00,
2013-01-16 04:36:00,23.0,15.6,29.98,SSE,168,0.0,4.0,73,0.00,,CLR,0.00,,VWS V13.01,2013-01-16 08:36:00,
2013-01-16 04:39:00,22.9,15.6,29.98,SSE,167,0.0,4.0,73,0.00,,CLR,0.00,,VWS V13.01,2013-01-16 08:39:00,
2013-01-16 04:41:00,22.9,15.6,29.98,SSE,167,0.0,2.0,73,0.00,,CLR,0.00,,VWS V13.01,2013-01-16 08:41:00,
2013-01-16 04:44:00,22.9,15.6,29.98,SSE,151,0.0,4.0,73,0.00,,CLR,0.00,,VWS V13.01,2013-01-16 08:44:00,
2013-01-16 04:46:00,22.9,15.6,29.98,SE,131,0.0,4.0,73,0.00,,CLR,0.00,,VWS V13.01,2013-01-16 08:46:00,
2013-01-16 04:49:00,22.9,15.6,29.98,SE,134,0.0,0.0,73,0.00,,CLR,0.00,,VWS V13.01,2013-01-16 08:49:00,
2013-01-16 04:50:00,22.7,15.4,29.98,SE,134,0.0,2.0,73,0.00,,CLR,0.00,,VWS V13.01,2013-01-16 08:50:00,
2013-01-16 04:51:00,22.7,15.4,29.98,SSE,160,0.0,2.0,73,0.00,,CLR,0.00,,VWS V13.01,2013-01-16 08:51:00,
2013-01-16 04:52:00,22.7,15.4,29.98,SSE,150,0.0,2.0,73,0.00,,CLR,0.00,,VWS V13.01,2013-01-16 08:52:00,
2013-01-16 04:55:00,22.7,15.4,29.98,SSE,160,0.0,2.0,73,0.00,,CLR,0.00,,VWS V13.01,2013-01-16 08:55:00,
2013-01-16 04:57:00,22.7,15.7,29.98,SSE,164,0.0,2.0,74,0.00,,CLR,0.00,,VWS V13.01,2013-01-16 08:57:00,
2013-01-16 05:00:00,22.7,15.7,29.98,SSE,164,0.0,0.0,74,0.00,,CLR,0.00,,VWS V13.01,2013-01-16 09:00:00,
2013-01-16 05:01:00,22.7,15.4,29.97,South,181,10.0,10.0,73,0.00,,CLR,0.00,,VWS V13.01,2013-01-16 09:01:00,
2013-01-16 05:02:00,22.7,15.4,29.97,South,181,0.0,10.0,73,0.00,,CLR,0.00,,VWS V13.01,2013-01-16 09:02:00,
2013-01-16 05:05:00,22.7,15.7,29.97,South,181,0.0,0.0,74,0.00,,CLR,0.00,,VWS V13.01,2013-01-16 09:05:00,
2013-01-16 05:06:00,22.5,15.5,29.97,SSE,155,0.0,4.0,74,0.00,,CLR,0.00,,VWS V13.01,2013-01-16 09:06:00,
2013-01-16 05:07:00,22.5,15.5,29.97,SSE,155,0.0,4.0,74,0.00,,CLR,0.00,,VWS V13.01,2013-01-16 09:07:00,
2013-01-16 05:10:00,22.5,15.5,29.97,SSE,164,0.0,4.0,74,0.00,,CLR,0.00,,VWS V13.01,2013-01-16 09:10:00,
2013-01-16 05:12:00,22.5,15.5,29.97,SSE,164,0.0,2.0,74,0.00,,CLR,0.00,,VWS V13.01,2013-01-16 09:12:00,
2013-01-16 05:15:00,22.5,15.5,29.97,SSE,164,0.0,10.0,74,0.00,,CLR,0.00,,VWS V13.01,2013-01-16 09:15:00,
2013-01-16 05:17:00,22.5,15.5,29.96,SE,133,0.0,8.0,74,0.00,,CLR,0.00,,VWS V13.01,2013-01-16 09:17:00,
2013-01-16 05:21:00,22.5,15.5,29.96,SSE,168,0.0,4.0,74,0.00,,CLR,0.00,,VWS V13.01,2013-01-16 09:21:00,
2013-01-16 05:23:00,22.5,15.2,29.96,South,169,0.0,0.0,73,0.00,,CLR,0.00,,VWS V13.01,2013-01-16 09:23:00,
2013-01-16 05:26:00,22.5,15.5,29.96,SW,226,0.0,6.0,74,0.00,,CLR,0.00,,VWS V13.01,2013-01-16 09:26:00,
2013-01-16 05:28:00,22.5,15.5,29.96,WSW,251,0.0,4.0,74,0.00,,CLR,0.00,,VWS V13.01,2013-01-16 09:28:00,
2013-01-16 05:29:00,22.7,15.7,29.96,WSW,251,0.0,2.0,74,0.00,,CLR,0.00,,VWS V13.01,2013-01-16 09:29:00,
2013-01-16 05:30:00,23.5,15.8,29.94,SW,226,0.0,0.0,72,0.00,,SCT055,0.00,0.00,VWS V14.01,2013-01-16 09:30:00,
2013-01-16 05:31:00,22.7,15.7,29.95,WSW,251,0.0,2.0,74,0.00,,CLR,0.00,,VWS V13.01,2013-01-16 09:31:00,
2013-01-16 05:33:00,22.7,15.7,29.95,WSW,251,0.0,2.0,74,0.00,,CLR,0.00,,VWS V13.01,2013-01-16 09:33:00,
2013-01-16 05:35:00,22.7,15.4,29.95,SW,220,2.0,8.0,73,0.00,,CLR,0.00,,VWS V13.01,2013-01-16 09:35:00,
2013-01-16 05:36:00,22.9,15.6,29.95,SW,220,0.0,4.0,73,0.00,,CLR,0.00,,VWS V13.01,2013-01-16 09:36:00,
2013-01-16 05:38:00,22.9,15.6,29.95,SW,220,0.0,2.0,73,0.00,,CLR,0.00,,VWS V13.01,2013-01-16 09:38:00,
2013-01-16 05:39:00,22.9,15.6,29.95,SW,220,0.0,2.0,73,0.00,,CLR,0.00,,VWS V13.01,2013-01-16 09:39:00,
2013-01-16 05:40:00,22.9,15.6,29.95,SW,220,0.0,2.0,73,0.00,,CLR,0.00,,VWS V13.01,2013-01-16 09:40:00,
2013-01-16 05:41:00,22.9,15.6,29.95,SW,220,0.0,2.0,73,0.00,,CLR,0.00,,VWS V13.01,2013-01-16 09:41:00,
2013-01-16 05:44:00,23.0,15.6,29.95,SW,222,2.0,2.0,73,0.00,,CLR,0.00,,VWS V13.01,2013-01-16 09:44:00,
2013-01-16 05:45:00,23.0,15.6,29.95,SW,222,0.0,4.0,73,0.00,,CLR,0.00,,VWS V13.01,2013-01-16 09:45:00,
2013-01-16 05:47:00,23.0,15.6,29.95,SW,222,0.0,4.0,73,0.00,,CLR,0.00,,VWS V13.01,2013-01-16 09:47:00,
2013-01-16 05:49:00,23.0,15.6,29.95,South,175,0.0,2.0,73,0.00,,CLR,0.00,,VWS V13.01,2013-01-16 09:49:00,
2013-01-16 05:50:00,23.0,15.6,29.95,SSE,160,4.0,6.0,73,0.00,,CLR,0.00,,VWS V13.01,2013-01-16 09:50:00,
2013-01-16 05:52:00,23.0,15.3,29.95,WSW,256,0.0,10.0,72,0.00,,CLR,0.00,,VWS V13.01,2013-01-16 09:52:00,
2013-01-16 05:54:00,23.0,15.3,29.95,WSW,256,0.0,0.0,72,0.00,,CLR,0.00,,VWS V13.01,2013-01-16 09:54:00,
2013-01-16 05:55:00,23.0,15.3,29.95,WSW,256,0.0,2.0,72,0.00,,CLR,0.00,,VWS V13.01,2013-01-16 09:55:00,
2013-01-16 05:58:00,23.2,15.5,29.95,WSW,253,0.0,4.0,72,0.00,,CLR,0.00,,VWS V13.01,2013-01-16 09:58:00,
2013-01-16 05:59:00,23.2,15.5,29.95,WSW,253,0.0,0.0,72,0.00,,CLR,0.00,,VWS V13.01,2013-01-16 09:59:00,
2013-01-16 06:00:00,24.2,15.5,29.93,SW,232,2.0,10.0,69,0.00,,SCT055,0.00,0.00,VWS V14.01,2013-01-16 10:00:00,
2013-01-16 06:01:00,23.2,15.5,29.94,WSW,241,0.0,6.0,72,0.00,,CLR,0.00,,VWS V13.01,2013-01-16 10:01:00,
2013-01-16 06:03:00,23.2,15.5,29.94,WSW,241,0.0,4.0,72,0.00,,CLR,0.00,,VWS V13.01,2013-01-16 10:03:00,
2013-01-16 06:04:00,23.2,15.5,29.94,WSW,241,0.0,4.0,72,0.00,,CLR,0.00,,VWS V13.01,2013-01-16 10:04:00,
2013-01-16 06:06:00,23.2,15.5,29.94,WSW,240,6.0,8.0,72,0.00,,CLR,0.00,,VWS V13.01,2013-01-16 10:06:00,
2013-01-16 06:09:00,23.2,15.5,29.94,WSW,240,0.0,0.0,72,0.00,,CLR,0.00,,VWS V13.01,2013-01-16 10:09:00,
2013-01-16 06:11:00,23.2,15.5,29.94,WSW,239,0.0,0.0,72,0.00,,CLR,0.00,,VWS V13.01,2013-01-16 10:11:00,
2013-01-16 06:14:00,23.2,15.5,29.94,WSW,237,0.0,6.0,72,0.00,,CLR,0.00,,VWS V13.01,2013-01-16 10:14:00,
2013-01-16 06:15:00,23.2,15.5,29.94,SW,229,6.0,6.0,72,0.00,,CLR,0.00,,VWS V13.01,2013-01-16 10:15:00,
2013-01-16 06:17:00,23.2,15.5,29.94,SW,230,0.0,6.0,72,0.00,,CLR,0.00,,VWS V13.01,2013-01-16 10:17:00,
2013-01-16 06:19:00,23.2,15.5,29.94,SW,226,0.0,2.0,72,0.00,,CLR,0.00,,VWS V13.01,2013-01-16 10:19:00,
2013-01-16 06:20:00,23.2,15.5,29.94,SW,226,0.0,6.0,72,0.00,,CLR,0.00,,VWS V13.01,2013-01-16 10:20:00,
2013-01-16 06:22:00,23.3,15.6,29.94,SW,226,0.0,0.0,72,0.00,,CLR,0.00,,VWS V13.01,2013-01-16 10:22:00,
2013-01-16 06:24:00,23.3,15.6,29.94,SW,226,0.0,0.0,72,0.00,,CLR,0.00,,VWS V13.01,2013-01-16 10:24:00,
2013-01-16 06:25:00,23.3,15.6,29.94,SW,226,0.0,0.0,72,0.00,,CLR,0.00,,VWS V13.01,2013-01-16 10:25:00,
2013-01-16 06:26:00,23.3,15.6,29.94,SW,226,0.0,0.0,72,0.00,,CLR,0.00,,VWS V13.01,2013-01-16 10:26:00,
2013-01-16 06:28:00,23.3,15.6,29.94,SW,226,0.0,0.0,72,0.00,,CLR,0.00,,VWS V13.01,2013-01-16 10:28:00,
2013-01-16 06:29:00,23.3,15.6,29.94,SW,226,0.0,0.0,72,0.00,,CLR,0.00,,VWS V13.01,2013-01-16 10:29:00,
2013-01-16 06:30:00,24.8,16.1,29.92,SW,230,10.0,12.0,69,0.00,,SCT055,0.00,0.00,VWS V14.01,2013-01-16 10:30:00,
2013-01-16 06:31:00,23.5,15.8,29.94,SW,226,0.0,0.0,72,0.00,,CLR,0.00,,VWS V13.01,2013-01-16 10:31:00,
2013-01-16 06:33:00,23.5,15.5,29.94,SW,226,0.0,0.0,71,0.00,,BKN095,0.00,,VWS V13.01,2013-01-16 10:33:00,
2013-01-16 06:34:00,23.5,15.5,29.94,SW,226,0.0,0.0,71,0.00,,BKN095,0.00,,VWS V13.01,2013-01-16 10:34:00,
2013-01-16 06:36:00,23.5,15.5,29.94,SW,226,0.0,0.0,71,0.00,,BKN095,0.00,,VWS V13.01,2013-01-16 10:36:00,
2013-01-16 06:38:00,23.6,15.6,29.94,SW,226,0.0,0.0,71,0.00,,BKN095,0.00,,VWS V13.01,2013-01-16 10:38:00,
2013-01-16 06:40:00,23.6,15.6,29.94,SW,227,2.0,4.0,71,0.00,,BKN095,0.00,,VWS V13.01,2013-01-16 10:40:00,
2013-01-16 06:41:00,23.6,15.6,29.94,SW,227,0.0,4.0,71,0.00,,BKN095,0.00,,VWS V13.01,2013-01-16 10:41:00,
2013-01-16 06:42:00,23.6,15.6,29.94,SW,229,0.0,4.0,71,0.00,,BKN095,0.00,,VWS V13.01,2013-01-16 10:42:00,
2013-01-16 06:44:00,23.8,15.5,29.94,SW,227,2.0,4.0,70,0.00,,BKN095,0.00,,VWS V13.01,2013-01-16 10:44:00,
2013-01-16 06:45:00,23.8,15.5,29.94,SW,227,0.0,4.0,70,0.00,,BKN095,0.00,,VWS V13.01,2013-01-16 10:45:00,
2013-01-16 06:46:00,23.8,15.5,29.94,SW,227,0.0,4.0,70,0.00,,BKN095,0.00,,VWS V13.01,2013-01-16 10:46:00,
2013-01-16 06:47:00,23.9,15.6,29.94,SW,229,4.0,4.0,70,0.00,,BKN095,0.00,,VWS V13.01,2013-01-16 10:47:00,
2013-01-16 06:50:00,23.9,15.6,29.94,SW,229,0.0,6.0,70,0.00,,BKN095,0.00,,VWS V13.01,2013-01-16 10:50:00,
2013-01-16 06:51:00,23.9,15.6,29.94,SW,229,0.0,6.0,70,0.00,,BKN095,0.00,,VWS V13.01,2013-01-16 10:51:00,
2013-01-16 06:52:00,24.1,15.8,29.94,SW,229,2.0,4.0,70,0.00,,BKN095,0.00,,VWS V13.01,2013-01-16 10:52:00,
2013-01-16 06:55:00,24.1,15.8,29.94,SW,229,0.0,6.0,70,0.00,,BKN095,0.00,,VWS V13.01,2013-01-16 10:55:00,
2013-01-16 06:57:00,24.2,15.8,29.94,SW,236,0.0,2.0,70,0.00,,BKN095,0.00,,VWS V13.01,2013-01-16 10:57:00,
2013-01-16 06:58:00,24.2,15.8,29.94,SW,236,0.0,0.0,70,0.00,,BKN095,0.00,,VWS V13.01,2013-01-16 10:58:00,
2013-01-16 07:00:00,24.2,15.5,29.94,WSW,241,6.0,12.0,69,0.00,,BKN095,0.00,,VWS V13.01,2013-01-16 11:00:00,
2013-01-16 07:02:00,24.4,15.7,29.93,SW,232,0.0,10.0,69,0.00,,BKN095,0.00,,VWS V13.01,2013-01-16 11:02:00,
2013-01-16 07:03:00,24.4,15.7,29.93,SW,232,8.0,10.0,69,0.00,,BKN095,0.00,,VWS V13.01,2013-01-16 11:03:00,
2013-01-16 07:05:00,24.4,15.7,29.93,SW,224,0.0,10.0,69,0.00,,BKN095,0.00,,VWS V13.01,2013-01-16 11:05:00,
2013-01-16 07:07:00,24.5,15.8,29.93,SW,224,2.0,6.0,69,0.00,,BKN095,0.00,,VWS V13.01,2013-01-16 11:07:00,
2013-01-16 07:08:00,24.5,15.8,29.93,SW,224,4.0,6.0,69,0.00,,BKN095,0.00,,VWS V13.01,2013-01-16 11:08:00,
2013-01-16 07:10:00,24.5,15.8,29.93,SW,224,4.0,10.0,69,0.00,,BKN095,0.00,,VWS V13.01,2013-01-16 11:10:00,
2013-01-16 07:13:00,24.7,16.0,29.93,SW,224,0.0,6.0,69,0.00,,BKN095,0.00,,VWS V13.01,2013-01-16 11:13:00,
2013-01-16 07:14:00,24.7,16.0,29.93,SW,230,0.0,8.0,69,0.00,,BKN095,0.00,,VWS V13.01,2013-01-16 11:14:00,
2013-01-16 07:16:00,24.7,16.0,29.92,SW,227,6.0,12.0,69,0.00,,BKN095,0.00,,VWS V13.01,2013-01-16 11:16:00,
2013-01-16 07:18:00,24.7,16.0,29.92,SW,229,10.0,10.0,69,0.00,,BKN095,0.00,,VWS V13.01,2013-01-16 11:18:00,
2013-01-16 07:19:00,24.8,16.1,29.92,SW,230,6.0,10.0,69,0.00,,BKN095,0.00,,VWS V13.01,2013-01-16 11:19:00,
2013-01-16 07:21:00,24.8,16.1,29.92,SW,230,6.0,6.0,69,0.00,,BKN095,0.00,,VWS V13.01,2013-01-16 11:21:00,
2013-01-16 07:23:00,24.8,16.1,29.92,WSW,258,6.0,10.0,69,0.00,,BKN095,0.00,,VWS V13.01,2013-01-16 11:23:00,
2013-01-16 07:24:00,24.8,16.1,29.92,WSW,246,6.0,12.0,69,0.00,,BKN095,0.00,,VWS V13.01,2013-01-16 11:24:00,
2013-01-16 07:26:00,24.8,16.1,29.92,SW,229,2.0,10.0,69,0.00,,BKN095,0.00,,VWS V13.01,2013-01-16 11:26:00,
2013-01-16 07:29:00,24.8,16.1,29.92,SW,220,2.0,14.0,69,0.00,,BKN095,0.00,,VWS V13.01,2013-01-16 11:29:00,
2013-01-16 07:30:00,25.8,17.7,29.93,WSW,237,4.0,10.0,71,0.00,,SCT055,0.00,0.00,VWS V14.01,2013-01-16 11:30:00,
2013-01-16 07:31:00,24.8,16.1,29.92,SW,230,8.0,12.0,69,0.00,,BKN095,0.00,,VWS V13.01,2013-01-16 11:31:00,
2013-01-16 07:34:00,25.0,16.3,29.92,SW,220,4.0,14.0,69,0.00,,OVC060,0.00,,VWS V13.01,2013-01-16 11:34:00,
2013-01-16 07:36:00,25.0,16.3,29.92,SW,222,4.0,10.0,69,0.00,,OVC060,0.00,,VWS V13.01,2013-01-16 11:36:00,
2013-01-16 07:39:00,25.0,16.3,29.92,SW,220,6.0,8.0,69,0.00,,OVC060,0.00,,VWS V13.01,2013-01-16 11:39:00,
2013-01-16 07:40:00,25.0,16.3,29.92,WSW,254,6.0,16.0,69,0.00,,OVC060,0.00,,VWS V13.01,2013-01-16 11:40:00,
2013-01-16 07:41:00,25.0,16.3,29.92,WSW,247,4.0,16.0,69,0.00,,OVC060,0.00,,VWS V13.01,2013-01-16 11:41:00,
2013-01-16 07:45:00,25.0,16.3,29.92,SW,230,4.0,6.0,69,0.00,,OVC060,0.00,,VWS V13.01,2013-01-16 11:45:00,
2013-01-16 07:47:00,25.0,16.3,29.92,SW,236,2.0,8.0,69,0.00,,OVC060,0.00,,VWS V13.01,2013-01-16 11:47:00,
2013-01-16 07:50:00,25.0,16.3,29.92,SW,233,0.0,8.0,69,0.00,,OVC060,0.00,,VWS V13.01,2013-01-16 11:50:00,
2013-01-16 07:52:00,25.1,16.4,29.92,SW,233,4.0,6.0,69,0.00,,OVC060,0.00,,VWS V13.01,2013-01-16 11:52:00,
2013-01-16 07:55:00,25.1,16.4,29.92,SW,223,6.0,6.0,69,0.00,,OVC060,0.00,,VWS V13.01,2013-01-16 11:55:00,
2013-01-16 07:56:00,25.1,16.4,29.92,SW,233,4.0,6.0,69,0.00,,OVC060,0.00,,VWS V13.01,2013-01-16 11:56:00,
2013-01-16 07:57:00,25.1,16.4,29.92,SW,233,4.0,6.0,69,0.00,,OVC060,0.00,,VWS V13.01,2013-01-16 11:57:00,
2013-01-16 08:00:00,26.4,18.3,29.94,WSW,237,0.0,0.0,71,0.00,,SCT055,0.00,0.00,VWS V14.01,2013-01-16 12:00:00,
2013-01-16 08:01:00,25.1,16.7,29.92,SW,230,0.0,4.0,70,0.00,,OVC060,0.00,,VWS V13.01,2013-01-16 12:01:00,
2013-01-16 08:02:00,25.3,16.9,29.92,SW,230,0.0,4.0,70,0.00,,OVC060,0.00,,VWS V13.01,2013-01-16 12:02:00,
2013-01-16 08:06:00,25.3,16.9,29.92,SW,230,6.0,12.0,70,0.00,,OVC060,0.00,,VWS V13.01,2013-01-16 12:06:00,
2013-01-16 08:07:00,25.3,16.9,29.92,SW,233,4.0,12.0,70,0.00,,OVC060,0.00,,VWS V13.01,2013-01-16 12:07:00,
2013-01-16 08:11:00,25.4,17.0,29.92,WSW,237,4.0,8.0,70,0.00,,OVC060,0.00,,VWS V13.01,2013-01-16 12:11:00,
2013-01-16 08:13:00,25.4,17.0,29.92,WSW,237,4.0,10.0,70,0.00,,OVC060,0.00,,VWS V13.01,2013-01-16 12:13:00,
2013-01-16 08:16:00,25.6,17.2,29.93,WSW,237,0.0,8.0,70,0.00,,OVC060,0.00,,VWS V13.01,2013-01-16 12:16:00,
2013-01-16 08:17:00,25.6,17.2,29.93,WSW,237,2.0,8.0,70,0.00,,OVC060,0.00,,VWS V13.01,2013-01-16 12:17:00,
2013-01-16 08:18:00,25.6,17.2,29.93,WSW,237,4.0,12.0,70,0.00,,OVC060,0.00,,VWS V13.01,2013-01-16 12:18:00,
2013-01-16 08:21:00,25.6,17.2,29.93,WSW,237,4.0,6.0,70,0.00,,OVC060,0.00,,VWS V13.01,2013-01-16 12:21:00,
2013-01-16 08:22:00,25.7,17.3,29.93,WSW,237,2.0,6.0,70,0.00,,OVC060,0.00,,VWS V13.01,2013-01-16 12:22:00,
2013-01-16 08:23:00,25.7,17.3,29.93,WSW,237,4.0,6.0,70,0.00,,OVC060,0.00,,VWS V13.01,2013-01-16 12:23:00,
2013-01-16 08:26:00,25.7,17.3,29.93,WSW,237,0.0,10.0,70,0.00,,OVC060,0.00,,VWS V13.01,2013-01-16 12:26:00,
2013-01-16 08:27:00,25.8,17.4,29.93,WSW,237,4.0,6.0,70,0.00,,OVC060,0.00,,VWS V13.01,2013-01-16 12:27:00,
2013-01-16 08:28:00,25.8,17.4,29.93,WSW,237,0.0,4.0,70,0.00,,OVC060,0.00,,VWS V13.01,2013-01-16 12:28:00,
2013-01-16 08:29:00,25.8,17.4,29.93,WSW,239,0.0,4.0,70,0.00,,OVC060,0.00,,VWS V13.01,2013-01-16 12:29:00,
2013-01-16 08:30:00,27.3,19.8,29.94,SW,232,0.0,0.0,73,0.00,,SCT055,0.00,0.00,VWS V14.01,2013-01-16 12:30:00,
2013-01-16 08:31:00,25.8,17.7,29.93,WSW,237,4.0,10.0,71,0.00,,OVC060,0.00,,VWS V13.01,2013-01-16 12:31:00,
2013-01-16 08:33:00,25.8,17.7,29.93,WSW,237,4.0,10.0,71,0.00,,OVC050,0.00,,VWS V13.01,2013-01-16 12:33:00,
2013-01-16 08:34:00,26.0,17.9,29.93,WSW,237,4.0,10.0,71,0.00,,OVC050,0.00,,VWS V13.01,2013-01-16 12:34:00,
2013-01-16 08:37:00,26.0,17.9,29.93,SW,227,0.0,10.0,71,0.00,,OVC050,0.00,,VWS V13.01,2013-01-16 12:37:00,
2013-01-16 08:38:00,26.0,17.9,29.93,WSW,237,4.0,8.0,71,0.00,,OVC050,0.00,,VWS V13.01,2013-01-16 12:38:00,
2013-01-16 08:39:00,26.0,17.9,29.93,WSW,237,0.0,8.0,71,0.00,,OVC050,0.00,,VWS V13.01,2013-01-16 12:39:00,
2013-01-16 08:42:00,26.1,18.0,29.93,WSW,237,4.0,6.0,71,0.00,,OVC050,0.00,,VWS V13.01,2013-01-16 12:42:00,
2013-01-16 08:43:00,26.1,18.0,29.93,WSW,237,0.0,10.0,71,0.00,,OVC050,0.00,,VWS V13.01,2013-01-16 12:43:00,
2013-01-16 08:44:00,26.1,18.0,29.93,WSW,237,2.0,10.0,71,0.00,,OVC050,0.00,,VWS V13.01,2013-01-16 12:44:00,
2013-01-16 08:45:00,26.1,18.0,29.93,WSW,237,6.0,10.0,71,0.00,,OVC050,0.00,,VWS V13.01,2013-01-16 12:45:00,
2013-01-16 08:48:00,26.3,18.2,29.93,WSW,237,0.0,4.0,71,0.00,,OVC050,0.00,,VWS V13.01,2013-01-16 12:48:00,
2013-01-16 08:49:00,26.3,18.2,29.93,WSW,239,6.0,6.0,71,0.00,,OVC050,0.00,,VWS V13.01,2013-01-16 12:49:00,
2013-01-16 08:50:00,26.3,18.2,29.93,WSW,237,0.0,6.0,71,0.00,,OVC050,0.00,,VWS V13.01,2013-01-16 12:50:00,
2013-01-16 08:53:00,26.3,18.2,29.93,WSW,237,0.0,0.0,71,0.00,,OVC050,0.00,,VWS V13.01,2013-01-16 12:53:00,
2013-01-16 08:54:00,26.3,18.2,29.93,WSW,237,0.0,0.0,71,0.00,,OVC050,0.00,,VWS V13.01,2013-01-16 12:54:00,
2013-01-16 08:55:00,26.3,18.2,29.93,WSW,237,0.0,0.0,71,0.00,,OVC050,0.00,,VWS V13.01,2013-01-16 12:55:00,
2013-01-16 08:56:00,26.4,18.3,29.93,WSW,237,0.0,0.0,71,0.00,,OVC050,0.00,,VWS V13.01,2013-01-16 12:56:00,
2013-01-16 08:58:00,26.4,18.3,29.93,WSW,237,0.0,0.0,71,0.00,,OVC050,0.00,,VWS V13.01,2013-01-16 12:58:00,
2013-01-16 08:59:00,26.4,18.3,29.93,WSW,237,0.0,0.0,71,0.00,,OVC050,0.00,,VWS V13.01,2013-01-16 12:59:00,
2013-01-16 09:00:00,26.4,18.3,29.93,WSW,237,0.0,0.0,71,0.00,,OVC050,0.00,,VWS V13.01,2013-01-16 13:00:00,
2013-01-16 09:01:00,26.4,18.3,29.94,WSW,237,0.0,0.0,71,0.00,,OVC050,0.00,,VWS V13.01,2013-01-16 13:01:00,
2013-01-16 09:04:00,26.4,18.6,29.94,WSW,239,0.0,0.0,72,0.00,,OVC050,0.00,,VWS V13.01,2013-01-16 13:04:00,
2013-01-16 09:05:00,26.6,18.8,29.94,WSW,237,0.0,0.0,72,0.00,,OVC050,0.00,,VWS V13.01,2013-01-16 13:05:00,
2013-01-16 09:06:00,26.6,18.8,29.94,WSW,239,0.0,0.0,72,0.00,,OVC050,0.00,,VWS V13.01,2013-01-16 13:06:00,
2013-01-16 09:09:00,26.6,18.8,29.94,WSW,237,0.0,0.0,72,0.00,,OVC050,0.00,,VWS V13.01,2013-01-16 13:09:00,
2013-01-16 09:10:00,26.6,18.8,29.94,WSW,237,0.0,0.0,72,0.00,,OVC050,0.00,,VWS V13.01,2013-01-16 13:10:00,
2013-01-16 09:11:00,26.6,18.8,29.94,WSW,237,0.0,0.0,72,0.00,,OVC050,0.00,,VWS V13.01,2013-01-16 13:11:00,
2013-01-16 09:14:00,26.6,18.8,29.94,WSW,239,0.0,0.0,72,0.00,,OVC050,0.00,,VWS V13.01,2013-01-16 13:14:00,
2013-01-16 09:15:00,26.7,18.9,29.94,WNW,292,0.0,12.0,72,0.00,,OVC050,0.00,,VWS V13.01,2013-01-16 13:15:00,
2013-01-16 09:16:00,26.7,18.9,29.94,WNW,292,0.0,8.0,72,0.00,,OVC050,0.00,,VWS V13.01,2013-01-16 13:16:00,
2013-01-16 09:19:00,26.9,19.1,29.94,WNW,292,0.0,0.0,72,0.00,,OVC050,0.00,,VWS V13.01,2013-01-16 13:19:00,
2013-01-16 09:20:00,26.9,19.1,29.94,SW,232,0.0,8.0,72,0.00,,OVC050,0.00,,VWS V13.01,2013-01-16 13:20:00,
2013-01-16 09:21:00,26.9,19.1,29.94,SW,233,4.0,8.0,72,0.00,,OVC050,0.00,,VWS V13.01,2013-01-16 13:21:00,
2013-01-16 09:24:00,27.0,19.5,29.94,SW,232,0.0,0.0,73,0.00,,OVC050,0.00,,VWS V13.01,2013-01-16 13:24:00,
2013-01-16 09:25:00,27.0,19.5,29.94,SW,232,0.0,0.0,73,0.00,,OVC050,0.00,,VWS V13.01,2013-01-16 13:25:00,
2013-01-16 09:26:00,27.0,19.5,29.94,SW,232,0.0,0.0,73,0.00,,OVC050,0.00,,VWS V13.01,2013-01-16 13:26:00,
2013-01-16 09:30:00,27.3,19.8,29.94,SW,232,0.0,4.0,73,0.00,,OVC050,0.00,,VWS V13.01,2013-01-16 13:30:00,
2013-01-16 09:31:00,27.2,19.7,29.94,SW,232,0.0,4.0,73,0.00,,OVC050,0.00,,VWS V13.01,2013-01-16 13:31:00,
2013-01-16 09:32:00,27.3,19.8,29.94,SW,232,0.0,0.0,73,0.00,,OVC050,0.00,,VWS V13.01,2013-01-16 13:32:00,
2013-01-16 09:35:00,27.5,20.0,29.94,SW,232,0.0,0.0,73,0.00,,OVC047,0.00,,VWS V13.01,2013-01-16 13:35:00,
2013-01-16 09:36:00,27.5,20.0,29.94,SW,232,0.0,0.0,73,0.00,,OVC047,0.00,,VWS V13.01,2013-01-16 13:36:00,
2013-01-16 09:37:00,27.5,20.0,29.94,SW,232,0.0,0.0,73,0.00,,OVC047,0.00,,VWS V13.01,2013-01-16 13:37:00,
2013-01-16 09:41:00,27.6,20.1,29.94,SW,229,0.0,10.0,73,0.00,,OVC047,0.00,,VWS V13.01,2013-01-16 13:41:00,
2013-01-16 09:42:00,27.6,20.1,29.94,SW,229,0.0,10.0,73,0.00,,OVC047,0.00,,VWS V13.01,2013-01-16 13:42:00,
2013-01-16 09:46:00,27.6,20.1,29.95,SW,229,0.0,0.0,73,0.00,,OVC047,0.00,,VWS V13.01,2013-01-16 13:46:00,
2013-01-16 09:47:00,27.8,20.3,29.95,SW,229,0.0,2.0,73,0.00,,OVC047,0.00,,VWS V13.01,2013-01-16 13:47:00,
2013-01-16 09:51:00,27.8,20.3,29.95,SW,229,0.0,0.0,73,0.00,,OVC047,0.00,,VWS V13.01,2013-01-16 13:51:00,
2013-01-16 09:52:00,27.8,20.3,29.95,SW,229,0.0,0.0,73,0.00,,OVC047,0.00,,VWS V13.01,2013-01-16 13:52:00,
2013-01-16 09:53:00,27.9,20.4,29.95,SW,229,0.0,0.0,73,0.00,,OVC047,0.00,,VWS V13.01,2013-01-16 13:53:00,
2013-01-16 09:56:00,27.9,20.7,29.95,SW,229,0.0,0.0,74,0.00,,OVC047,0.00,,VWS V13.01,2013-01-16 13:56:00,
2013-01-16 09:57:00,27.9,20.7,29.95,SW,229,0.0,0.0,74,0.00,,OVC047,0.00,,VWS V13.01,2013-01-16 13:57:00,
2013-01-16 09:58:00,27.9,20.7,29.95,SW,229,0.0,0.0,74,0.00,,OVC047,0.00,,VWS V13.01,2013-01-16 13:58:00,
2013-01-16 10:00:00,29.7,23.4,29.96,SW,229,0.0,0.0,77,0.00,,SCT055,0.00,83.00,VWS V14.01,2013-01-16 14:00:00,
2013-01-16 10:01:00,27.9,20.7,29.95,SW,229,0.0,0.0,74,0.00,,OVC047,0.00,,VWS V13.01,2013-01-16 14:01:00,
2013-01-16 10:02:00,27.9,20.7,29.95,SW,229,0.0,0.0,74,0.00,,OVC047,0.00,,VWS V13.01,2013-01-16 14:02:00,
2013-01-16 10:04:00,27.9,20.7,29.95,SW,229,0.0,0.0,74,0.00,,OVC047,0.00,,VWS V13.01,2013-01-16 14:04:00,
2013-01-16 10:07:00,27.9,20.7,29.95,SW,229,0.0,0.0,74,0.00,,OVC047,0.00,,VWS V13.01,2013-01-16 14:07:00,
2013-01-16 10:08:00,27.9,20.7,29.95,SW,229,0.0,0.0,74,0.00,,OVC047,0.00,,VWS V13.01,2013-01-16 14:08:00,
2013-01-16 10:09:00,27.9,20.7,29.95,SW,229,0.0,0.0,74,0.00,,OVC047,0.00,,VWS V13.01,2013-01-16 14:09:00,
2013-01-16 10:12:00,28.1,20.9,29.95,SW,229,0.0,0.0,74,0.00,,OVC047,0.00,,VWS V13.01,2013-01-16 14:12:00,
2013-01-16 10:13:00,27.9,20.7,29.95,SW,229,0.0,0.0,74,0.00,,OVC047,0.00,,VWS V13.01,2013-01-16 14:13:00,
2013-01-16 10:15:00,28.1,20.9,29.95,SW,229,0.0,0.0,74,0.00,,OVC047,0.00,,VWS V13.01,2013-01-16 14:15:00,
2013-01-16 10:18:00,28.1,20.9,29.96,SW,229,0.0,0.0,74,0.00,,OVC047,0.00,,VWS V13.01,2013-01-16 14:18:00,
2013-01-16 10:21:00,28.1,20.9,29.96,SW,229,0.0,0.0,74,0.00,,OVC047,0.00,,VWS V13.01,2013-01-16 14:21:00,
2013-01-16 10:23:00,28.1,20.9,29.96,SW,229,0.0,0.0,74,0.00,,OVC047,0.00,,VWS V13.01,2013-01-16 14:23:00,
2013-01-16 10:27:00,28.1,21.2,29.96,SW,229,0.0,0.0,75,0.00,,OVC047,0.00,,VWS V13.01,2013-01-16 14:27:00,
2013-01-16 10:28:00,28.1,21.2,29.96,SW,229,0.0,0.0,75,0.00,,OVC047,0.00,,VWS V13.01,2013-01-16 14:28:00,
2013-01-16 10:30:00,31.8,25.1,29.96,WSW,257,0.0,0.0,76,0.00,,SCT055,0.00,141.00,VWS V14.01,2013-01-16 14:30:00,
2013-01-16 10:32:00,28.2,21.3,29.96,SW,229,0.0,0.0,75,0.00,,BKN055,0.00,,VWS V13.01,2013-01-16 14:32:00,
2013-01-16 10:33:00,28.2,21.3,29.96,SW,229,0.0,0.0,75,0.00,,BKN055,0.00,,VWS V13.01,2013-01-16 14:33:00,
2013-01-16 10:34:00,28.2,21.3,29.96,SW,229,0.0,0.0,75,0.00,,BKN055,0.00,,VWS V13.01,2013-01-16 14:34:00,
2013-01-16 10:37:00,28.4,21.5,29.96,SW,229,0.0,0.0,75,0.00,,BKN055,0.00,,VWS V13.01,2013-01-16 14:37:00,
2013-01-16 10:38:00,28.4,21.8,29.96,SW,229,0.0,0.0,76,0.00,,BKN055,0.00,,VWS V13.01,2013-01-16 14:38:00,
2013-01-16 10:39:00,28.4,21.8,29.96,SW,229,0.0,0.0,76,0.00,,BKN055,0.00,,VWS V13.01,2013-01-16 14:39:00,
2013-01-16 10:43:00,28.7,22.1,29.96,SW,229,0.0,0.0,76,0.00,,BKN055,0.00,,VWS V13.01,2013-01-16 14:43:00,
2013-01-16 10:44:00,28.7,22.1,29.96,SW,229,0.0,0.0,76,0.00,,BKN055,0.00,,VWS V13.01,2013-01-16 14:44:00,
2013-01-16 10:45:00,28.8,22.2,29.96,SW,229,0.0,0.0,76,0.00,,BKN055,0.00,,VWS V13.01,2013-01-16 14:45:00,
2013-01-16 10:48:00,29.0,22.4,29.96,SW,229,0.0,0.0,76,0.00,,BKN055,0.00,,VWS V13.01,2013-01-16 14:48:00,
2013-01-16 10:49:00,29.0,22.4,29.96,SW,229,0.0,0.0,76,0.00,,BKN055,0.00,,VWS V13.01,2013-01-16 14:49:00,
2013-01-16 10:50:00,29.1,22.5,29.96,SW,229,0.0,0.0,76,0.00,,BKN055,0.00,,VWS V13.01,2013-01-16 14:50:00,
2013-01-16 10:53:00,29.3,22.7,29.96,SW,229,0.0,0.0,76,0.00,,BKN055,0.00,,VWS V13.01,2013-01-16 14:53:00,
2013-01-16 10:54:00,29.3,22.7,29.96,SW,229,0.0,0.0,76,0.00,,BKN055,0.00,,VWS V13.01,2013-01-16 14:54:00,
2013-01-16 10:55:00,29.3,22.7,29.96,SW,229,0.0,0.0,76,0.00,,BKN055,0.00,,VWS V13.01,2013-01-16 14:55:00,
2013-01-16 10:58:00,29.5,23.2,29.96,SW,229,0.0,0.0,77,0.00,,BKN055,0.00,,VWS V13.01,2013-01-16 14:58:00,
2013-01-16 10:59:00,29.5,23.2,29.96,SW,229,0.0,4.0,77,0.00,,BKN055,0.00,,VWS V13.01,2013-01-16 14:59:00,
2013-01-16 11:00:00,29.5,23.2,29.96,SW,229,0.0,4.0,77,0.00,,BKN055,0.00,,VWS V13.01,2013-01-16 15:00:00,
2013-01-16 11:03:00,29.8,23.5,29.96,SW,229,0.0,0.0,77,0.00,,BKN055,0.00,,VWS V13.01,2013-01-16 15:03:00,
2013-01-16 11:04:00,29.8,23.5,29.96,SW,229,0.0,0.0,77,0.00,,BKN055,0.00,,VWS V13.01,2013-01-16 15:04:00,
2013-01-16 11:05:00,30.0,23.7,29.96,SW,229,0.0,0.0,77,0.00,,BKN055,0.00,,VWS V13.01,2013-01-16 15:05:00,
2013-01-16 11:08:00,30.1,23.8,29.96,SW,229,0.0,2.0,77,0.00,,BKN055,0.00,,VWS V13.01,2013-01-16 15:08:00,
2013-01-16 11:09:00,30.3,24.0,29.96,SW,229,0.0,0.0,77,0.00,,BKN055,0.00,,VWS V13.01,2013-01-16 15:09:00,
2013-01-16 11:10:00,30.3,24.0,29.96,SW,229,0.0,0.0,77,0.00,,BKN055,0.00,,VWS V13.01,2013-01-16 15:10:00,
2013-01-16 11:11:00,30.3,24.0,29.96,SW,229,0.0,0.0,77,0.00,,BKN055,0.00,,VWS V13.01,2013-01-16 15:11:00,
2013-01-16 11:14:00,30.6,24.3,29.96,SW,229,0.0,0.0,77,0.00,,BKN055,0.00,,VWS V13.01,2013-01-16 15:14:00,
2013-01-16 11:15:00,30.7,24.4,29.96,SW,229,0.0,0.0,77,0.00,,BKN055,0.00,,VWS V13.01,2013-01-16 15:15:00,
2013-01-16 11:16:00,30.7,24.4,29.96,WSW,257,0.0,4.0,77,0.00,,BKN055,0.00,,VWS V13.01,2013-01-16 15:16:00,
2013-01-16 11:19:00,30.9,24.5,29.96,WSW,257,0.0,0.0,77,0.00,,BKN055,0.00,,VWS V13.01,2013-01-16 15:19:00,
2013-01-16 11:20:00,31.0,24.6,29.96,WSW,257,0.0,0.0,77,0.00,,BKN055,0.00,,VWS V13.01,2013-01-16 15:20:00,
2013-01-16 11:21:00,31.2,24.8,29.96,WSW,257,0.0,0.0,77,0.00,,BKN055,0.00,,VWS V13.01,2013-01-16 15:21:00,
2013-01-16 11:24:00,31.3,24.9,29.96,WSW,257,0.0,0.0,77,0.00,,BKN055,0.00,,VWS V13.01,2013-01-16 15:24:00,
2013-01-16 11:25:00,31.3,24.9,29.96,WSW,257,0.0,0.0,77,0.00,,BKN055,0.00,,VWS V13.01,2013-01-16 15:25:00,
2013-01-16 11:26:00,31.5,24.8,29.96,WSW,257,0.0,0.0,76,0.00,,BKN055,0.00,,VWS V13.01,2013-01-16 15:26:00,
2013-01-16 11:30:00,31.6,24.9,29.96,WSW,257,0.0,0.0,76,0.00,,BKN055,0.00,,VWS V13.01,2013-01-16 15:30:00,
2013-01-16 11:31:00,31.8,25.1,29.96,WSW,257,0.0,0.0,76,0.00,,BKN055,0.00,,VWS V13.01,2013-01-16 15:31:00,
2013-01-16 11:32:00,31.8,25.1,29.96,WSW,257,0.0,0.0,76,0.00,,OVC041,0.00,,VWS V13.01,2013-01-16 15:32:00,
2013-01-16 11:35:00,32.1,25.4,29.96,WSW,257,0.0,0.0,76,0.00,,OVC041,0.00,,VWS V13.01,2013-01-16 15:35:00,
2013-01-16 11:36:00,32.1,25.4,29.96,WSW,257,0.0,6.0,76,0.00,,OVC041,0.00,,VWS V13.01,2013-01-16 15:36:00,
2013-01-16 11:37:00,32.2,25.5,29.96,WSW,257,2.0,4.0,76,0.00,,OVC041,0.00,,VWS V13.01,2013-01-16 15:37:00,
2013-01-16 11:40:00,32.5,25.8,29.96,WSW,257,0.0,6.0,76,0.00,,OVC041,0.00,,VWS V13.01,2013-01-16 15:40:00,
2013-01-16 11:41:00,32.7,26.0,29.96,WSW,257,0.0,0.0,76,0.00,,OVC041,0.00,,VWS V13.01,2013-01-16 15:41:00,
2013-01-16 11:42:00,32.7,26.0,29.96,WSW,257,4.0,4.0,76,0.00,,OVC041,0.00,,VWS V13.01,2013-01-16 15:42:00,
2013-01-16 11:45:00,32.9,26.2,29.96,WSW,257,2.0,10.0,76,0.00,,OVC041,0.00,,VWS V13.01,2013-01-16 15:45:00,
2013-01-16 11:46:00,33.1,26.0,29.96,WSW,257,0.0,10.0,75,0.00,,OVC041,0.00,,VWS V13.01,2013-01-16 15:46:00,
2013-01-16 11:47:00,33.2,26.1,29.96,West,281,4.0,12.0,75,0.00,,OVC041,0.00,,VWS V13.01,2013-01-16 15:47:00,
2013-01-16 11:50:00,33.5,26.4,29.96,WNW,284,0.0,6.0,75,0.00,,OVC041,0.00,,VWS V13.01,2013-01-16 15:50:00,
2013-01-16 11:51:00,33.7,26.6,29.96,West,278,6.0,6.0,75,0.00,,OVC041,0.00,,VWS V13.01,2013-01-16 15:51:00,
2013-01-16 11:53:00,33.8,26.7,29.96,West,278,0.0,6.0,75,0.00,,OVC041,0.00,,VWS V13.01,2013-01-16 15:53:00,
2013-01-16 11:55:00,34.0,26.9,29.96,West,275,2.0,6.0,75,0.00,,OVC041,0.00,,VWS V13.01,2013-01-16 15:55:00,
2013-01-16 11:56:00,34.3,27.2,29.96,West,275,0.0,4.0,75,0.00,,OVC041,0.00,,VWS V13.01,2013-01-16 15:56:00,
2013-01-16 11:58:00,34.4,27.3,29.96,West,281,6.0,10.0,75,0.00,,OVC041,0.00,,VWS V13.01,2013-01-16 15:58:00,
2013-01-16 12:00:00,34.6,27.5,29.96,West,281,0.0,6.0,75,0.00,,OVC041,0.00,,VWS V13.01,2013-01-16 16:00:00,
2013-01-16 12:01:00,34.7,27.6,29.95,West,281,0.0,4.0,75,0.00,,OVC041,0.00,,VWS V13.01,2013-01-16 16:01:00,
2013-01-16 12:03:00,34.9,27.8,29.95,West,281,0.0,10.0,75,0.00,,OVC041,0.00,,VWS V13.01,2013-01-16 16:03:00,
2013-01-16 12:06:00,35.2,27.8,29.95,West,272,6.0,8.0,74,0.00,,OVC041,0.00,,VWS V13.01,2013-01-16 16:06:00,
2013-01-16 12:08:00,35.5,28.0,29.95,West,263,0.0,12.0,74,0.00,,OVC041,0.00,,VWS V13.01,2013-01-16 16:08:00,
2013-01-16 12:11:00,35.8,28.3,29.95,WSW,257,0.0,6.0,74,0.00,,OVC041,0.00,,VWS V13.01,2013-01-16 16:11:00,
2013-01-16 12:12:00,35.9,28.4,29.95,West,265,0.0,6.0,74,0.00,,OVC041,0.00,,VWS V13.01,2013-01-16 16:12:00,
2013-01-16 12:13:00,36.0,28.5,29.95,West,265,0.0,4.0,74,0.00,,OVC041,0.00,,VWS V13.01,2013-01-16 16:13:00,
2013-01-16 12:16:00,36.2,28.4,29.96,West,265,0.0,4.0,73,0.00,,OVC041,0.00,,VWS V13.01,2013-01-16 16:16:00,
2013-01-16 12:17:00,36.3,28.5,29.96,West,265,0.0,4.0,73,0.00,,OVC041,0.00,,VWS V13.01,2013-01-16 16:17:00,
2013-01-16 12:18:00,36.5,28.7,29.96,WSW,256,0.0,2.0,73,0.00,,OVC041,0.00,,VWS V13.01,2013-01-16 16:18:00,
2013-01-16 12:21:00,36.8,29.0,29.96,NW,305,8.0,10.0,73,0.00,,OVC041,0.00,,VWS V13.01,2013-01-16 16:21:00,
2013-01-16 12:23:00,36.9,28.7,29.96,NW,305,0.0,10.0,72,0.00,,OVC041,0.00,,VWS V13.01,2013-01-16 16:23:00,
2013-01-16 12:25:00,37.0,28.8,29.96,NW,305,0.0,0.0,72,0.00,,OVC041,0.00,,VWS V13.01,2013-01-16 16:25:00,
2013-01-16 12:27:00,37.2,29.0,29.96,WNW,292,0.0,4.0,72,0.00,,OVC041,0.00,,VWS V13.01,2013-01-16 16:27:00,
2013-01-16 12:28:00,37.3,29.1,29.96,WNW,292,0.0,0.0,72,0.00,,OVC041,0.00,,VWS V13.01,2013-01-16 16:28:00,
2013-01-16 12:30:00,37.5,29.3,29.96,WNW,292,0.0,0.0,72,0.00,,OVC041,0.00,,VWS V13.01,2013-01-16 16:30:00,
2013-01-16 12:32:00,37.8,29.6,29.95,West,278,8.0,10.0,72,0.00,,OVC037,0.00,,VWS V13.01,2013-01-16 16:32:00,
2013-01-16 12:33:00,37.9,29.7,29.95,WNW,288,6.0,12.0,72,0.00,,OVC037,0.00,,VWS V13.01,2013-01-16 16:33:00,
2013-01-16 12:36:00,38.3,29.7,29.95,NW,318,4.0,12.0,71,0.00,,OVC037,0.00,,VWS V13.01,2013-01-16 16:36:00,
2013-01-16 12:37:00,38.3,29.7,29.95,NW,316,0.0,12.0,71,0.00,,OVC037,0.00,,VWS V13.01,2013-01-16 16:37:00,
2013-01-16 12:38:00,38.6,30.0,29.95,WNW,294,0.0,4.0,71,0.00,,OVC037,0.00,,VWS V13.01,2013-01-16 16:38:00,
2013-01-16 12:41:00,38.9,30.0,29.95,WNW,289,0.0,12.0,70,0.00,,OVC037,0.00,,VWS V13.01,2013-01-16 16:41:00,
2013-01-16 12:42:00,39.1,30.2,29.95,NW,319,4.0,10.0,70,0.00,,OVC037,0.00,,VWS V13.01,2013-01-16 16:42:00,
2013-01-16 12:43:00,39.2,30.2,29.95,NW,319,2.0,10.0,70,0.00,,OVC037,0.00,,VWS V13.01,2013-01-16 16:43:00,
2013-01-16 12:46:00,39.5,30.2,29.95,SW,229,4.0,6.0,69,0.00,,OVC037,0.00,,VWS V13.01,2013-01-16 16:46:00,
2013-01-16 12:47:00,39.6,30.3,29.95,WNW,289,0.0,6.0,69,0.00,,OVC037,0.00,,VWS V13.01,2013-01-16 16:47:00,
2013-01-16 12:49:00,39.8,30.5,29.95,NW,305,0.0,12.0,69,0.00,,OVC037,0.00,,VWS V13.01,2013-01-16 16:49:00,
2013-01-16 12:52:00,40.1,30.4,29.95,WNW,296,0.0,0.0,68,0.00,,OVC037,0.00,,VWS V13.01,2013-01-16 16:52:00,
2013-01-16 12:54:00,40.3,30.6,29.95,West,272,0.0,12.0,68,0.00,,OVC037,0.00,,VWS V13.01,2013-01-16 16:54:00,
2013-01-16 12:57:00,40.6,30.5,29.95,NNW,337,10.0,10.0,67,0.00,,OVC037,0.00,,VWS V13.01,2013-01-16 16:57:00,
2013-01-16 12:58:00,40.9,30.8,29.95,NNW,329,10.0,12.0,67,0.00,,OVC037,0.00,,VWS V13.01,2013-01-16 16:58:00,
2013-01-16 12:59:00,41.1,31.0,29.95,West,270,6.0,12.0,67,0.00,,OVC037,0.00,,VWS V13.01,2013-01-16 16:59:00,
2013-01-16 13:00:00,46.5,31.2,29.95,NW,322,8.0,24.0,55,0.00,,SCT055,0.00,452.00,VWS V14.01,2013-01-16 17:00:00,
2013-01-16 13:02:00,41.3,30.8,29.95,West,280,4.0,20.0,66,0.00,,OVC037,0.00,,VWS V13.01,2013-01-16 17:02:00,
2013-01-16 13:03:00,41.6,31.1,29.95,West,277,6.0,12.0,66,0.00,,OVC037,0.00,,VWS V13.01,2013-01-16 17:03:00,
2013-01-16 13:04:00,41.8,31.3,29.95,WNW,287,14.0,14.0,66,0.00,,OVC037,0.00,,VWS V13.01,2013-01-16 17:04:00,
2013-01-16 13:07:00,42.2,31.3,29.95,WNW,294,10.0,16.0,65,0.00,,OVC037,0.00,,VWS V13.01,2013-01-16 17:07:00,
2013-01-16 13:08:00,42.3,31.0,29.95,WNW,287,6.0,16.0,64,0.00,,OVC037,0.00,,VWS V13.01,2013-01-16 17:08:00,
2013-01-16 13:09:00,42.5,31.2,29.95,West,274,6.0,12.0,64,0.00,,OVC037,0.00,,VWS V13.01,2013-01-16 17:09:00,
2013-01-16 13:12:00,42.9,31.2,29.95,WNW,282,6.0,16.0,63,0.00,,OVC037,0.00,,VWS V13.01,2013-01-16 17:12:00,
2013-01-16 13:13:00,43.1,31.4,29.95,WNW,299,4.0,14.0,63,0.00,,OVC037,0.00,,VWS V13.01,2013-01-16 17:13:00,
2013-01-16 13:14:00,43.2,31.5,29.95,WNW,292,10.0,14.0,63,0.00,,OVC037,0.00,,VWS V13.01,2013-01-16 17:14:00,
2013-01-16 13:15:00,43.3,31.6,29.95,West,261,12.0,20.0,63,0.00,,OVC037,0.00,,VWS V13.01,2013-01-16 17:15:00,
2013-01-16 13:17:00,43.6,31.0,29.94,NW,319,6.0,22.0,61,0.00,,OVC037,0.00,,VWS V13.01,2013-01-16 17:17:00,
2013-01-16 13:18:00,43.9,31.3,29.94,North,0,14.0,16.0,61,0.00,,OVC037,0.00,,VWS V13.01,2013-01-16 17:18:00,
2013-01-16 13:19:00,43.9,31.3,29.94,NW,322,12.0,16.0,61,0.00,,OVC037,0.00,,VWS V13.01,2013-01-16 17:19:00,
2013-01-16 13:20:00,44.1,31.5,29.94,WNW,284,12.0,16.0,61,0.00,,OVC037,0.00,,VWS V13.01,2013-01-16 17:20:00,
2013-01-16 13:23:00,44.3,31.3,29.94,North,0,10.0,20.0,60,0.00,,OVC037,0.00,,VWS V13.01,2013-01-16 17:23:00,
2013-01-16 13:24:00,44.5,31.5,29.94,WNW,299,2.0,20.0,60,0.00,,OVC037,0.00,,VWS V13.01,2013-01-16 17:24:00,
2013-01-16 13:25:00,44.6,31.6,29.94,West,267,4.0,10.0,60,0.00,,OVC037,0.00,,VWS V13.01,2013-01-16 17:25:00,
2013-01-16 13:26:00,44.6,31.6,29.94,NNW,333,14.0,20.0,60,0.00,,OVC037,0.00,,VWS V13.01,2013-01-16 17:26:00,
2013-01-16 13:28:00,44.9,31.5,29.94,West,280,6.0,16.0,59,0.00,,OVC037,0.00,,VWS V13.01,2013-01-16 17:28:00,
2013-01-16 13:29:00,45.1,31.2,29.94,NNW,343,6.0,16.0,58,0.00,,OVC037,0.00,,VWS V13.01,2013-01-16 17:29:00,
2013-01-16 13:30:00,45.2,31.3,29.94,WNW,284,4.0,16.0,58,0.00,,OVC037,0.00,,VWS V13.01,2013-01-16 17:30:00,
2013-01-16 13:31:00,45.2,31.3,29.94,WNW,296,6.0,16.0,58,0.00,,OVC037,0.00,,VWS V13.01,2013-01-16 17:31:00,
2013-01-16 13:33:00,45.4,31.5,29.94,WNW,285,10.0,24.0,58,0.00,,OVC037,0.00,,VWS V13.01,2013-01-16 17:33:00,
2013-01-16 13:34:00,45.4,31.5,29.94,WNW,285,14.0,16.0,58,0.00,,OVC037,0.00,,VWS V13.01,2013-01-16 17:34:00,
2013-01-16 13:36:00,45.5,31.2,29.94,NW,306,6.0,20.0,57,0.00,,OVC037,0.00,,VWS V13.01,2013-01-16 17:36:00,
2013-01-16 13:39:00,45.7,31.4,29.94,NNW,335,12.0,26.0,57,0.00,,OVC037,0.00,,VWS V13.01,2013-01-16 17:39:00,
2013-01-16 13:41:00,45.8,31.5,29.94,WNW,284,12.0,14.0,57,0.00,,OVC037,0.00,,VWS V13.01,2013-01-16 17:41:00,
2013-01-16 13:42:00,45.8,31.5,29.94,WNW,288,10.0,22.0,57,0.00,,CLR,0.00,,VWS V13.01,2013-01-16 17:42:00,
2013-01-16 13:44:00,46.0,31.2,29.94,North,352,10.0,22.0,56,0.00,,CLR,0.00,,VWS V13.01,2013-01-16 17:44:00,
2013-01-16 13:46:00,46.0,31.2,29.94,NW,308,16.0,16.0,56,0.00,,CLR,0.00,,VWS V13.01,2013-01-16 17:46:00,
2013-01-16 13:47:00,46.0,31.2,29.94,WNW,288,14.0,16.0,56,0.00,,CLR,0.00,,VWS V13.01,2013-01-16 17:47:00,
2013-01-16 13:49:00,46.1,31.3,29.94,NNW,335,20.0,22.0,56,0.00,,CLR,0.00,,VWS V13.01,2013-01-16 17:49:00,
2013-01-16 13:51:00,46.1,31.3,29.94,WNW,288,12.0,22.0,56,0.00,,CLR,0.00,,VWS V13.01,2013-01-16 17:51:00,
2013-01-16 13:52:00,46.1,31.3,29.94,NW,304,12.0,14.0,56,0.00,,CLR,0.00,,VWS V13.01,2013-01-16 17:52:00,
2013-01-16 13:54:00,46.2,31.4,29.94,WNW,284,14.0,22.0,56,0.00,,CLR,0.00,,VWS V13.01,2013-01-16 17:54:00,
2013-01-16 13:55:00,46.2,31.4,29.94,West,275,20.0,24.0,56,0.00,,CLR,0.00,,VWS V13.01,2013-01-16 17:55:00,
2013-01-16 13:56:00,46.4,31.1,29.94,NW,320,10.0,24.0,55,0.00,,CLR,0.00,,VWS V13.01,2013-01-16 17:56:00,
2013-01-16 13:57:00,46.4,31.6,29.94,NW,316,8.0,20.0,56,0.00,,CLR,0.00,,VWS V13.01,2013-01-16 17:57:00,
2013-01-16 13:59:00,46.4,31.1,29.94,West,274,14.0,24.0,55,0.00,,CLR,0.00,,VWS V13.01,2013-01-16 17:59:00,
2013-01-16 14:00:00,46.4,31.1,29.94,West,265,14.0,24.0,55,0.00,,CLR,0.00,,VWS V13.01,2013-01-16 18:00:00,
2013-01-16 14:01:00,46.5,31.2,29.95,NW,320,12.0,24.0,55,0.00,,CLR,0.00,,VWS V13.01,2013-01-16 18:01:00,
2013-01-16 14:02:00,46.5,31.2,29.95,WNW,294,16.0,24.0,55,0.00,,CLR,0.00,,VWS V13.01,2013-01-16 18:02:00,
2013-01-16 14:05:00,46.5,31.2,29.95,NW,311,18.0,18.0,55,0.00,,CLR,0.00,,VWS V13.01,2013-01-16 18:05:00,
2013-01-16 14:06:00,46.5,31.2,29.95,NNW,330,12.0,18.0,55,0.00,,CLR,0.00,,VWS V13.01,2013-01-16 18:06:00,
2013-01-16 14:07:00,46.7,31.4,29.95,NW,309,32.0,32.0,55,0.00,,CLR,0.00,,VWS V13.01,2013-01-16 18:07:00,
2013-01-16 14:10:00,46.7,31.4,29.95,NNW,333,10.0,12.0,55,0.00,,CLR,0.00,,VWS V13.01,2013-01-16 18:10:00,
2013-01-16 14:11:00,46.8,31.5,29.95,West,264,10.0,12.0,55,0.00,,CLR,0.00,,VWS V13.01,2013-01-16 18:11:00,
2013-01-16 14:12:00,46.8,31.5,29.95,NW,316,14.0,14.0,55,0.00,,CLR,0.00,,VWS V13.01,2013-01-16 18:12:00,
2013-01-16 14:15:00,46.8,31.0,29.95,NNW,340,12.0,36.0,54,0.00,,CLR,0.00,,VWS V13.01,2013-01-16 18:15:00,
2013-01-16 14:16:00,47.0,31.2,29.94,NW,316,16.0,28.0,54,0.00,,CLR,0.00,,VWS V13.01,2013-01-16 18:16:00,
2013-01-16 14:18:00,47.0,31.2,29.94,WNW,295,2.0,28.0,54,0.00,,CLR,0.00,,VWS V13.01,2013-01-16 18:18:00,
2013-01-16 14:20:00,46.8,31.0,29.94,North,349,6.0,20.0,54,0.00,,CLR,0.00,,VWS V13.01,2013-01-16 18:20:00,
2013-01-16 14:21:00,46.8,31.0,29.94,NNW,328,20.0,26.0,54,0.00,,CLR,0.00,,VWS V13.01,2013-01-16 18:21:00,
2013-01-16 14:22:00,46.8,31.0,29.94,NW,308,2.0,26.0,54,0.00,,CLR,0.00,,VWS V13.01,2013-01-16 18:22:00,
2013-01-16 14:24:00,46.8,31.0,29.94,NNW,332,14.0,16.0,54,0.00,,CLR,0.00,,VWS V13.01,2013-01-16 18:24:00,
2013-01-16 14:26:00,47.0,31.2,29.94,NNW,342,18.0,18.0,54,0.00,,CLR,0.00,,VWS V13.01,2013-01-16 18:26:00,
2013-01-16 14:27:00,47.0,31.2,29.94,NNW,333,12.0,18.0,54,0.00,,CLR,0.00,,VWS V13.01,2013-01-16 18:27:00,
2013-01-16 14:29:00,47.0,31.2,29.94,NW,320,16.0,20.0,54,0.00,,CLR,0.00,,VWS V13.01,2013-01-16 18:29:00,
2013-01-16 14:30:00,48.8,31.5,29.93,WNW,282,0.0,10.0,51,0.00,,SCT055,0.00,153.00,VWS V14.01,2013-01-16 18:30:00,
2013-01-16 14:31:00,47.0,31.2,29.93,WNW,298,0.0,20.0,54,0.00,,CLR,0.00,,VWS V13.01,2013-01-16 18:31:00,
2013-01-16 14:33:00,47.1,31.3,29.93,West,268,4.0,20.0,54,0.00,,CLR,0.00,,VWS V13.01,2013-01-16 18:33:00,
2013-01-16 14:35:00,47.1,30.9,29.93,NNW,333,12.0,28.0,53,0.00,,CLR,0.00,,VWS V13.01,2013-01-16 18:35:00,
2013-01-16 14:36:00,47.1,30.9,29.93,NW,326,10.0,16.0,53,0.00,,CLR,0.00,,VWS V13.01,2013-01-16 18:36:00,
2013-01-16 14:37:00,47.1,30.9,29.93,WNW,291,16.0,16.0,53,0.00,,CLR,0.00,,VWS V13.01,2013-01-16 18:37:00,
2013-01-16 14:38:00,47.1,30.9,29.93,NNW,330,10.0,20.0,53,0.00,,CLR,0.00,,VWS V13.01,2013-01-16 18:38:00,
2013-01-16 14:40:00,47.1,30.9,29.93,North,354,8.0,20.0,53,0.00,,CLR,0.00,,VWS V13.01,2013-01-16 18:40:00,
2013-01-16 14:42:00,47.3,31.0,29.93,WNW,296,14.0,16.0,53,0.00,,CLR,0.00,,VWS V13.01,2013-01-16 18:42:00,
2013-01-16 14:44:00,47.3,31.0,29.93,NNW,330,10.0,24.0,53,0.00,,CLR,0.00,,VWS V13.01,2013-01-16 18:44:00,
2013-01-16 14:45:00,47.3,31.0,29.93,NW,323,4.0,16.0,53,0.00,,CLR,0.00,,VWS V13.01,2013-01-16 18:45:00,
2013-01-16 14:47:00,47.4,31.1,29.93,WNW,296,4.0,12.0,53,0.00,,CLR,0.00,,VWS V13.01,2013-01-16 18:47:00,
2013-01-16 14:48:00,47.4,31.1,29.93,NW,304,22.0,22.0,53,0.00,,CLR,0.00,,VWS V13.01,2013-01-16 18:48:00,
2013-01-16 14:49:00,47.4,31.1,29.93,NW,325,22.0,22.0,53,0.00,,CLR,0.00,,VWS V13.01,2013-01-16 18:49:00,
2013-01-16 14:50:00,47.4,31.1,29.93,WNW,292,4.0,22.0,53,0.00,,CLR,0.00,,VWS V13.01,2013-01-16 18:50:00,
2013-01-16 14:52:00,47.4,31.1,29.93,NNW,337,22.0,22.0,53,0.00,,CLR,0.00,,VWS V13.01,2013-01-16 18:52:00,
2013-01-16 14:53:00,47.4,31.1,29.93,NW,319,14.0,22.0,53,0.00,,CLR,0.00,,VWS V13.01,2013-01-16 18:53:00,
2013-01-16 14:54:00,47.4,31.1,29.93,NW,305,8.0,22.0,53,0.00,,CLR,0.00,,VWS V13.01,2013-01-16 18:54:00,
2013-01-16 14:55:00,47.4,31.1,29.93,West,275,12.0,14.0,53,0.00,,CLR,0.00,,VWS V13.01,2013-01-16 18:55:00,
2013-01-16 14:57:00,47.6,31.3,29.93,NNW,333,8.0,12.0,53,0.00,,CLR,0.00,,VWS V13.01,2013-01-16 18:57:00,
2013-01-16 14:58:00,47.6,31.3,29.93,NNW,328,2.0,14.0,53,0.00,,CLR,0.00,,VWS V13.01,2013-01-16 18:58:00,
2013-01-16 14:59:00,47.6,31.3,29.93,WNW,301,4.0,22.0,53,0.00,,CLR,0.00,,VWS V13.01,2013-01-16 18:59:00,
2013-01-16 15:00:00,49.2,30.9,29.92,NW,309,6.0,16.0,49,0.00,,SCT055,0.00,283.00,VWS V14.01,2013-01-16 19:00:00,
2013-01-16 15:01:00,47.7,31.4,29.93,WNW,295,4.0,16.0,53,0.00,,CLR,0.00,,VWS V13.01,2013-01-16 19:01:00,
2013-01-16 15:03:00,47.7,31.4,29.93,West,260,4.0,12.0,53,0.00,,CLR,0.00,,VWS V13.01,2013-01-16 19:03:00,
2013-01-16 15:04:00,47.9,31.1,29.93,North,0,10.0,12.0,52,0.00,,CLR,0.00,,VWS V13.01,2013-01-16 19:04:00,
2013-01-16 15:06:00,47.9,31.1,29.93,NW,305,6.0,22.0,52,0.00,,CLR,0.00,,VWS V13.01,2013-01-16 19:06:00,
2013-01-16 15:08:00,47.9,31.1,29.93,WNW,294,4.0,16.0,52,0.00,,CLR,0.00,,VWS V13.01,2013-01-16 19:08:00,
2013-01-16 15:09:00,48.0,31.2,29.93,NW,305,4.0,12.0,52,0.00,,CLR,0.00,,VWS V13.01,2013-01-16 19:09:00,
2013-01-16 15:11:00,48.0,31.2,29.93,North,353,10.0,20.0,52,0.00,,CLR,0.00,,VWS V13.01,2013-01-16 19:11:00,
2013-01-16 15:13:00,48.2,31.4,29.93,SW,232,8.0,16.0,52,0.00,,CLR,0.00,,VWS V13.01,2013-01-16 19:13:00,
2013-01-16 15:14:00,48.2,31.4,29.93,West,268,12.0,16.0,52,0.00,,CLR,0.00,,VWS V13.01,2013-01-16 19:14:00,
2013-01-16 15:16:00,48.2,31.4,29.93,West,278,4.0,12.0,52,0.00,,CLR,0.00,,VWS V13.01,2013-01-16 19:16:00,
2013-01-16 15:18:00,48.3,31.5,29.93,WNW,301,4.0,16.0,52,0.00,,CLR,0.00,,VWS V13.01,2013-01-16 19:18:00,
2013-01-16 15:19:00,48.3,31.5,29.93,West,281,4.0,16.0,52,0.00,,CLR,0.00,,VWS V13.01,2013-01-16 19:19:00,
2013-01-16 15:20:00,48.3,31.5,29.93,North,1,10.0,20.0,52,0.00,,CLR,0.00,,VWS V13.01,2013-01-16 19:20:00,
2013-01-16 15:21:00,48.3,31.5,29.93,NNW,336,14.0,20.0,52,0.00,,CLR,0.00,,VWS V13.01,2013-01-16 19:21:00,
2013-01-16 15:24:00,48.5,31.7,29.93,NNW,335,10.0,10.0,52,0.00,,CLR,0.00,,VWS V13.01,2013-01-16 19:24:00,
2013-01-16 15:26:00,48.6,31.8,29.93,WSW,241,4.0,14.0,52,0.00,,CLR,0.00,,VWS V13.01,2013-01-16 19:26:00,
2013-01-16 15:29:00,48.6,31.3,29.93,WNW,289,12.0,14.0,51,0.00,,CLR,0.00,,VWS V13.01,2013-01-16 19:29:00,
2013-01-16 15:30:00,48.6,31.3,29.93,WNW,302,4.0,12.0,51,0.00,,CLR,0.00,,VWS V13.01,2013-01-16 19:30:00,
2013-01-16 15:31:00,48.8,31.5,29.93,WNW,282,0.0,10.0,51,0.00,,CLR,0.00,,VWS V13.01,2013-01-16 19:31:00,
2013-01-16 15:34:00,48.9,31.6,29.93,SSE,167,8.0,16.0,51,0.00,,CLR,0.00,,VWS V13.01,2013-01-16 19:34:00,
2013-01-16 15:35:00,48.9,31.1,29.93,NW,312,6.0,18.0,50,0.00,,CLR,0.00,,VWS V13.01,2013-01-16 19:35:00,
2013-01-16 15:36:00,48.9,31.6,29.93,WNW,289,6.0,18.0,51,0.00,,CLR,0.00,,VWS V13.01,2013-01-16 19:36:00,
2013-01-16 15:37:00,48.9,31.1,29.93,NNW,328,12.0,12.0,50,0.00,,CLR,0.00,,VWS V13.01,2013-01-16 19:37:00,
2013-01-16 15:39:00,48.9,31.1,29.93,NNW,340,14.0,26.0,50,0.00,,CLR,0.00,,VWS V13.01,2013-01-16 19:39:00,
2013-01-16 15:40:00,48.9,31.1,29.93,NNW,339,14.0,20.0,50,0.00,,CLR,0.00,,VWS V13.01,2013-01-16 19:40:00,
2013-01-16 15:41:00,48.9,31.1,29.93,NNW,329,4.0,16.0,50,0.00,,CLR,0.00,,VWS V13.01,2013-01-16 19:41:00,
2013-01-16 15:42:00,48.9,31.6,29.93,West,265,2.0,14.0,51,0.00,,CLR,0.00,,VWS V13.01,2013-01-16 19:42:00,
2013-01-16 15:44:00,48.9,31.1,29.93,NW,315,10.0,20.0,50,0.00,,CLR,0.00,,VWS V13.01,2013-01-16 19:44:00,
2013-01-16 15:46:00,49.1,31.3,29.93,NW,316,10.0,14.0,50,0.00,,CLR,0.00,,VWS V13.01,2013-01-16 19:46:00,
2013-01-16 15:47:00,48.9,31.1,29.93,NW,306,8.0,12.0,50,0.00,,CLR,0.00,,VWS V13.01,2013-01-16 19:47:00,
2013-01-16 15:48:00,49.1,31.3,29.93,West,271,14.0,14.0,50,0.00,,CLR,0.00,,VWS V13.01,2013-01-16 19:48:00,
2013-01-16 15:50:00,48.9,31.1,29.93,West,278,10.0,18.0,50,0.00,,CLR,0.00,,VWS V13.01,2013-01-16 19:50:00,
2013-01-16 15:51:00,48.9,31.1,29.93,WSW,256,4.0,24.0,50,0.00,,CLR,0.00,,VWS V13.01,2013-01-16 19:51:00,
2013-01-16 15:52:00,48.9,31.1,29.93,West,274,14.0,24.0,50,0.00,,CLR,0.00,,VWS V13.01,2013-01-16 19:52:00,
2013-01-16 15:53:00,49.1,31.3,29.93,NW,318,10.0,14.0,50,0.00,,CLR,0.00,,VWS V13.01,2013-01-16 19:53:00,
2013-01-16 15:55:00,49.1,31.3,29.93,NNW,335,0.0,14.0,50,0.00,,CLR,0.00,,VWS V13.01,2013-01-16 19:55:00,
2013-01-16 15:56:00,49.1,31.3,29.93,NNW,335,0.0,8.0,50,0.00,,CLR,0.00,,VWS V13.01,2013-01-16 19:56:00,
2013-01-16 15:57:00,49.1,31.3,29.93,NW,326,4.0,4.0,50,0.00,,CLR,0.00,,VWS V13.01,2013-01-16 19:57:00,
2013-01-16 15:58:00,49.2,31.4,29.93,WNW,288,8.0,10.0,50,0.00,,CLR,0.00,,VWS V13.01,2013-01-16 19:58:00,
2013-01-16 16:00:00,49.2,30.9,29.92,WNW,291,16.0,16.0,49,0.00,,CLR,0.00,,VWS V13.01,2013-01-16 20:00:00,
2013-01-16 16:01:00,49.2,30.9,29.92,NW,309,6.0,16.0,49,0.00,,CLR,0.00,,VWS V13.01,2013-01-16 20:01:00,
2013-01-16 16:02:00,49.2,30.9,29.92,WNW,289,10.0,16.0,49,0.00,,CLR,0.00,,VWS V13.01,2013-01-16 20:02:00,
2013-01-16 16:03:00,49.2,30.9,29.92,WSW,243,4.0,22.0,49,0.00,,CLR,0.00,,VWS V13.01,2013-01-16 20:03:00,
2013-01-16 16:06:00,49.2,30.9,29.92,NNW,333,4.0,14.0,49,0.00,,CLR,0.00,,VWS V13.01,2013-01-16 20:06:00,
2013-01-16 16:07:00,49.2,30.9,29.92,West,267,10.0,12.0,49,0.00,,CLR,0.00,,VWS V13.01,2013-01-16 20:07:00,
2013-01-16 16:08:00,49.2,30.9,29.92,WNW,302,8.0,12.0,49,0.00,,CLR,0.00,,VWS V13.01,2013-01-16 20:08:00,
2013-01-16 16:11:00,49.4,31.1,29.92,WNW,301,6.0,10.0,49,0.00,,CLR,0.00,,VWS V13.01,2013-01-16 20:11:00,
2013-01-16 16:12:00,49.4,31.1,29.92,WNW,288,2.0,10.0,49,0.00,,CLR,0.00,,VWS V13.01,2013-01-16 20:12:00,
2013-01-16 16:13:00,49.4,31.1,29.92,WSW,243,10.0,12.0,49,0.00,,CLR,0.00,,VWS V13.01,2013-01-16 20:13:00,
2013-01-16 16:16:00,49.4,31.1,29.93,SW,236,4.0,16.0,49,0.00,,CLR,0.00,,VWS V13.01,2013-01-16 20:16:00,
2013-01-16 16:17:00,49.5,31.1,29.93,NW,325,2.0,16.0,49,0.00,,CLR,0.00,,VWS V13.01,2013-01-16 20:17:00,
2013-01-16 16:18:00,49.5,31.1,29.93,West,272,14.0,16.0,49,0.00,,CLR,0.00,,VWS V13.01,2013-01-16 20:18:00,
2013-01-16 16:21:00,49.5,31.1,29.93,West,267,6.0,18.0,49,0.00,,CLR,0.00,,VWS V13.01,2013-01-16 20:21:00,
2013-01-16 16:22:00,49.5,31.1,29.93,NW,312,6.0,18.0,49,0.00,,CLR,0.00,,VWS V13.01,2013-01-16 20:22:00,
2013-01-16 16:24:00,49.5,31.1,29.93,NW,316,2.0,14.0,49,0.00,,CLR,0.00,,VWS V13.01,2013-01-16 20:24:00,
2013-01-16 16:27:00,49.6,31.2,29.93,West,270,12.0,12.0,49,0.00,,CLR,0.00,,VWS V13.01,2013-01-16 20:27:00,
2013-01-16 16:28:00,49.6,31.2,29.93,WNW,294,4.0,16.0,49,0.00,,CLR,0.00,,VWS V13.01,2013-01-16 20:28:00,
2013-01-16 16:29:00,49.6,31.2,29.93,West,280,4.0,14.0,49,0.00,,CLR,0.00,,VWS V13.01,2013-01-16 20:29:00,
2013-01-16 16:30:00,50.7,30.7,29.94,West,277,12.0,20.0,46,0.00,,SCT055,0.00,62.00,VWS V14.01,2013-01-16 20:30:00,
2013-01-16 16:32:00,49.6,31.2,29.93,West,267,8.0,26.0,49,0.00,,CLR,0.00,,VWS V13.01,2013-01-16 20:32:00,
2013-01-16 16:33:00,49.6,31.2,29.93,WNW,284,2.0,26.0,49,0.00,,CLR,0.00,,VWS V13.01,2013-01-16 20:33:00,
2013-01-16 16:34:00,49.6,31.2,29.93,WNW,282,6.0,14.0,49,0.00,,CLR,0.00,,VWS V13.01,2013-01-16 20:34:00,
2013-01-16 16:37:00,49.8,31.4,29.93,NW,319,2.0,12.0,49,0.00,,CLR,0.00,,VWS V13.01,2013-01-16 20:37:00,
2013-01-16 16:38:00,49.8,31.4,29.93,West,265,12.0,12.0,49,0.00,,CLR,0.00,,VWS V13.01,2013-01-16 20:38:00,
2013-01-16 16:39:00,49.8,31.4,29.93,WNW,292,14.0,20.0,49,0.00,,CLR,0.00,,VWS V13.01,2013-01-16 20:39:00,
2013-01-16 16:43:00,49.8,31.4,29.93,West,275,4.0,14.0,49,0.00,,CLR,0.00,,VWS V13.01,2013-01-16 20:43:00,
2013-01-16 16:45:00,49.8,31.4,29.93,WSW,256,6.0,10.0,49,0.00,,CLR,0.00,,VWS V13.01,2013-01-16 20:45:00,
2013-01-16 16:48:00,49.9,31.5,29.93,WSW,258,14.0,20.0,49,0.00,,CLR,0.00,,VWS V13.01,2013-01-16 20:48:00,
2013-01-16 16:50:00,49.9,31.5,29.93,West,260,12.0,18.0,49,0.00,,CLR,0.00,,VWS V13.01,2013-01-16 20:50:00,
2013-01-16 16:53:00,50.1,31.7,29.93,NW,305,0.0,10.0,49,0.00,,CLR,0.00,,VWS V13.01,2013-01-16 20:53:00,
2013-01-16 16:55:00,50.1,31.7,29.93,West,274,4.0,6.0,49,0.00,,CLR,0.00,,VWS V13.01,2013-01-16 20:55:00,
2013-01-16 16:58:00,50.2,31.8,29.93,West,268,4.0,12.0,49,0.00,,CLR,0.00,,VWS V13.01,2013-01-16 20:58:00,
2013-01-16 17:00:00,50.2,31.3,29.93,West,271,4.0,14.0,48,0.00,,CLR,0.00,,VWS V13.01,2013-01-16 21:00:00,
2013-01-16 17:03:00,50.4,31.5,29.94,NW,322,4.0,16.0,48,0.00,,CLR,0.00,,VWS V13.01,2013-01-16 21:03:00,
2013-01-16 17:05:00,50.4,31.5,29.94,WSW,251,10.0,16.0,48,0.00,,CLR,0.00,,VWS V13.01,2013-01-16 21:05:00,
2013-01-16 17:08:00,50.4,31.0,29.94,NW,305,10.0,12.0,47,0.00,,CLR,0.00,,VWS V13.01,2013-01-16 21:08:00,
2013-01-16 17:10:00,50.4,31.0,29.94,NW,308,10.0,12.0,47,0.00,,CLR,0.00,,VWS V13.01,2013-01-16 21:10:00,
2013-01-16 17:13:00,50.4,31.0,29.94,NNW,333,14.0,16.0,47,0.00,,CLR,0.00,,VWS V13.01,2013-01-16 21:13:00,
2013-01-16 17:14:00,50.4,31.0,29.94,NNW,347,10.0,16.0,47,0.00,,CLR,0.00,,VWS V13.01,2013-01-16 21:14:00,
2013-01-16 17:15:00,50.4,31.0,29.94,NNW,328,14.0,18.0,47,0.00,,CLR,0.00,,VWS V13.01,2013-01-16 21:15:00,
2013-01-16 17:18:00,50.4,31.0,29.95,NW,325,12.0,14.0,47,0.00,,CLR,0.00,,VWS V13.01,2013-01-16 21:18:00,
2013-01-16 17:19:00,50.4,31.0,29.95,NW,325,4.0,14.0,47,0.00,,CLR,0.00,,VWS V13.01,2013-01-16 21:19:00,
2013-01-16 17:20:00,50.4,31.0,29.95,WNW,294,12.0,14.0,47,0.00,,CLR,0.00,,VWS V13.01,2013-01-16 21:20:00,
2013-01-16 17:23:00,50.5,31.0,29.95,WNW,302,4.0,20.0,47,0.00,,CLR,0.00,,VWS V13.01,2013-01-16 21:23:00,
2013-01-16 17:24:00,50.5,31.0,29.95,WNW,302,6.0,20.0,47,0.00,,CLR,0.00,,VWS V13.01,2013-01-16 21:24:00,
2013-01-16 17:25:00,50.5,31.0,29.95,NW,318,2.0,14.0,47,0.00,,CLR,0.00,,VWS V13.01,2013-01-16 21:25:00,
2013-01-16 17:26:00,50.5,31.0,29.95,NW,318,2.0,14.0,47,0.00,,CLR,0.00,,VWS V13.01,2013-01-16 21:26:00,
2013-01-16 17:29:00,50.7,31.2,29.95,North,359,14.0,20.0,47,0.00,,CLR,0.00,,VWS V13.01,2013-01-16 21:29:00,
2013-01-16 17:30:00,50.7,30.7,29.94,WSW,256,10.0,20.0,46,0.00,,CLR,0.00,,VWS V13.01,2013-01-16 21:30:00,
2013-01-16 17:31:00,50.7,30.7,29.94,WSW,243,6.0,20.0,46,0.00,,CLR,0.00,,VWS V13.01,2013-01-16 21:31:00,
2013-01-16 17:34:00,50.7,31.2,29.94,SW,224,18.0,22.0,47,0.00,,CLR,0.00,,VWS V13.01,2013-01-16 21:34:00,
2013-01-16 17:36:00,50.7,31.2,29.94,NW,312,4.0,22.0,47,0.00,,CLR,0.00,,VWS V13.01,2013-01-16 21:36:00,
2013-01-16 17:39:00,50.7,31.2,29.94,NW,311,6.0,14.0,47,0.00,,CLR,0.00,,VWS V13.01,2013-01-16 21:39:00,
2013-01-16 17:41:00,50.8,31.3,29.94,WNW,296,4.0,12.0,47,0.00,,CLR,0.00,,VWS V13.01,2013-01-16 21:41:00,
2013-01-16 17:44:00,50.8,30.8,29.94,West,271,6.0,22.0,46,0.00,,CLR,0.00,,VWS V13.01,2013-01-16 21:44:00,
2013-01-16 17:46:00,51.0,31.0,29.95,WNW,301,4.0,12.0,46,0.00,,CLR,0.00,,VWS V13.01,2013-01-16 21:46:00,
2013-01-16 17:47:00,51.0,31.0,29.95,WSW,253,6.0,12.0,46,0.00,,CLR,0.00,,VWS V13.01,2013-01-16 21:47:00,
2013-01-16 17:49:00,51.1,31.1,29.95,WNW,301,6.0,12.0,46,0.00,,CLR,0.00,,VWS V13.01,2013-01-16 21:49:00,
2013-01-16 17:52:00,51.1,30.0,29.95,North,4,4.0,20.0,44,0.00,,CLR,0.00,,VWS V13.01,2013-01-16 21:52:00,
2013-01-16 17:54:00,51.1,30.0,29.95,West,260,4.0,14.0,44,0.00,,CLR,0.00,,VWS V13.01,2013-01-16 21:54:00,
2013-01-16 17:55:00,51.1,30.0,29.95,West,260,2.0,10.0,44,0.00,,CLR,0.00,,VWS V13.01,2013-01-16 21:55:00,
2013-01-16 17:57:00,51.3,29.6,29.95,NNW,335,6.0,12.0,43,0.00,,CLR,0.00,,VWS V13.01,2013-01-16 21:57:00,
2013-01-16 17:59:00,51.3,29.6,29.95,West,261,6.0,8.0,43,0.00,,CLR,0.00,,VWS V13.01,2013-01-16 21:59:00,
2013-01-16 18:00:00,51.3,29.6,29.95,West,264,4.0,10.0,43,0.00,,CLR,0.00,,VWS V13.01,2013-01-16 22:00:00,
2013-01-16 18:02:00,51.3,29.6,29.96,WNW,282,0.0,10.0,43,0.00,,CLR,0.00,,VWS V13.01,2013-01-16 22:02:00,
2013-01-16 18:04:00,51.4,29.7,29.96,West,270,6.0,14.0,43,0.00,,CLR,0.00,,VWS V13.01,2013-01-16 22:04:00,
2013-01-16 18:05:00,51.4,29.7,29.96,NW,312,4.0,14.0,43,0.00,,CLR,0.00,,VWS V13.01,2013-01-16 22:05:00,
2013-01-16 18:07:00,51.4,29.7,29.96,NW,312,0.0,10.0,43,0.00,,CLR,0.00,,VWS V13.01,2013-01-16 22:07:00,
2013-01-16 18:10:00,51.4,29.7,29.96,WNW,294,0.0,10.0,43,0.00,,CLR,0.00,,VWS V13.01,2013-01-16 22:10:00,
2013-01-16 18:11:00,51.4,29.7,29.96,NW,311,10.0,14.0,43,0.00,,CLR,0.00,,VWS V13.01,2013-01-16 22:11:00,
2013-01-16 18:12:00,51.4,29.7,29.96,NW,318,4.0,14.0,43,0.00,,CLR,0.00,,VWS V13.01,2013-01-16 22:12:00,
2013-01-16 18:15:00,51.4,29.7,29.96,WNW,284,0.0,14.0,43,0.00,,CLR,0.00,,VWS V13.01,2013-01-16 22:15:00,
2013-01-16 18:17:00,51.4,29.7,29.96,NW,308,2.0,8.0,43,0.00,,CLR,0.00,,VWS V13.01,2013-01-16 22:17:00,
2013-01-16 18:18:00,51.4,29.7,29.96,NW,308,2.0,4.0,43,0.00,,CLR,0.00,,VWS V13.01,2013-01-16 22:18:00,
2013-01-16 18:20:00,51.3,29.6,29.96,NW,326,6.0,8.0,43,0.00,,CLR,0.00,,VWS V13.01,2013-01-16 22:20:00,
2013-01-16 18:22:00,51.3,29.6,29.96,West,274,2.0,12.0,43,0.00,,CLR,0.00,,VWS V13.01,2013-01-16 22:22:00,
2013-01-16 18:23:00,51.3,29.6,29.96,West,275,12.0,12.0,43,0.00,,CLR,0.00,,VWS V13.01,2013-01-16 22:23:00,
2013-01-16 18:26:00,51.3,29.6,29.96,NW,309,8.0,10.0,43,0.00,,CLR,0.00,,VWS V13.01,2013-01-16 22:26:00,
2013-01-16 18:27:00,51.3,29.6,29.96,NW,309,6.0,10.0,43,0.00,,CLR,0.00,,VWS V13.01,2013-01-16 22:27:00,
2013-01-16 18:28:00,51.3,30.1,29.96,NNW,330,4.0,8.0,44,0.00,,CLR,0.00,,VWS V13.01,2013-01-16 22:28:00,
2013-01-16 18:30:00,48.6,30.8,30.00,WNW,285,4.0,12.0,50,0.00,,SCT055,0.00,0.00,VWS V14.01,2013-01-16 22:30:00,
2013-01-16 18:32:00,51.1,30.0,29.97,NW,305,6.0,8.0,44,0.00,,CLR,0.00,,VWS V13.01,2013-01-16 22:32:00,
2013-01-16 18:33:00,51.1,30.0,29.97,WSW,258,10.0,12.0,44,0.00,,CLR,0.00,,VWS V13.01,2013-01-16 22:33:00,
2013-01-16 18:37:00,51.0,29.9,29.97,WNW,282,2.0,4.0,44,0.00,,CLR,0.00,,VWS V13.01,2013-01-16 22:37:00,
2013-01-16 18:38:00,50.8,29.7,29.97,WNW,282,6.0,6.0,44,0.00,,CLR,0.00,,VWS V13.01,2013-01-16 22:38:00,
2013-01-16 18:39:00,50.8,29.7,29.97,West,280,10.0,12.0,44,0.00,,CLR,0.00,,VWS V13.01,2013-01-16 22:39:00,
2013-01-16 18:43:00,50.7,29.6,29.97,NW,326,0.0,12.0,44,0.00,,CLR,0.00,,VWS V13.01,2013-01-16 22:43:00,
2013-01-16 18:44:00,50.7,30.1,29.97,NW,326,0.0,4.0,45,0.00,,CLR,0.00,,VWS V13.01,2013-01-16 22:44:00,
2013-01-16 18:45:00,50.7,30.1,29.97,NW,320,2.0,8.0,45,0.00,,CLR,0.00,,VWS V13.01,2013-01-16 22:45:00,
2013-01-16 18:48:00,50.5,30.0,29.97,NW,320,0.0,0.0,45,0.00,,CLR,0.00,,VWS V13.01,2013-01-16 22:48:00,
2013-01-16 18:49:00,50.5,30.0,29.97,NW,313,10.0,14.0,45,0.00,,CLR,0.00,,VWS V13.01,2013-01-16 22:49:00,
2013-01-16 18:50:00,50.5,30.0,29.97,NW,304,4.0,14.0,45,0.00,,CLR,0.00,,VWS V13.01,2013-01-16 22:50:00,
2013-01-16 18:53:00,50.4,30.4,29.97,WNW,301,0.0,0.0,46,0.00,,CLR,0.00,,VWS V13.01,2013-01-16 22:53:00,
2013-01-16 18:54:00,50.4,30.4,29.97,NW,316,0.0,12.0,46,0.00,,CLR,0.00,,VWS V13.01,2013-01-16 22:54:00,
2013-01-16 18:55:00,50.4,30.4,29.97,NW,316,0.0,12.0,46,0.00,,CLR,0.00,,VWS V13.01,2013-01-16 22:55:00,
2013-01-16 18:58:00,50.2,30.2,29.97,WNW,296,0.0,2.0,46,0.00,,CLR,0.00,,VWS V13.01,2013-01-16 22:58:00,
2013-01-16 18:59:00,50.2,30.2,29.97,WNW,296,2.0,2.0,46,0.00,,CLR,0.00,,VWS V13.01,2013-01-16 22:59:00,
2013-01-16 19:00:00,50.2,30.2,29.97,West,281,0.0,6.0,46,0.00,,CLR,0.00,,VWS V13.01,2013-01-16 23:00:00,
2013-01-16 19:03:00,50.1,30.1,29.98,WNW,294,12.0,12.0,46,0.00,,CLR,0.00,,VWS V13.01,2013-01-16 23:03:00,
2013-01-16 19:04:00,50.1,30.1,29.98,NW,305,2.0,12.0,46,0.00,,CLR,0.00,,VWS V13.01,2013-01-16 23:04:00,
2013-01-16 19:05:00,50.1,30.1,29.98,NW,305,2.0,2.0,46,0.00,,CLR,0.00,,VWS V13.01,2013-01-16 23:05:00,
2013-01-16 19:08:00,49.9,30.5,29.98,NW,305,4.0,4.0,47,0.00,,CLR,0.00,,VWS V13.01,2013-01-16 23:08:00,
2013-01-16 19:09:00,49.8,30.4,29.98,NW,305,4.0,4.0,47,0.00,,CLR,0.00,,VWS V13.01,2013-01-16 23:09:00,
2013-01-16 19:10:00,49.8,30.4,29.98,WNW,295,4.0,6.0,47,0.00,,CLR,0.00,,VWS V13.01,2013-01-16 23:10:00,
2013-01-16 19:11:00,49.8,30.4,29.98,NW,308,4.0,10.0,47,0.00,,CLR,0.00,,VWS V13.01,2013-01-16 23:11:00,
2013-01-16 19:13:00,49.6,30.7,29.98,West,278,0.0,6.0,48,0.00,,CLR,0.00,,VWS V13.01,2013-01-16 23:13:00,
2013-01-16 19:14:00,49.6,30.7,29.98,West,278,0.0,6.0,48,0.00,,CLR,0.00,,VWS V13.01,2013-01-16 23:14:00,
2013-01-16 19:16:00,49.5,30.6,29.99,West,278,0.0,4.0,48,0.00,,CLR,0.00,,VWS V13.01,2013-01-16 23:16:00,
2013-01-16 19:18:00,49.4,31.1,29.99,West,275,0.0,16.0,49,0.00,,CLR,0.00,,VWS V13.01,2013-01-16 23:18:00,
2013-01-16 19:19:00,49.4,31.1,29.99,West,275,0.0,8.0,49,0.00,,CLR,0.00,,VWS V13.01,2013-01-16 23:19:00,
2013-01-16 19:21:00,49.4,31.1,29.99,West,275,0.0,4.0,49,0.00,,CLR,0.00,,VWS V13.01,2013-01-16 23:21:00,
2013-01-16 19:23:00,49.2,30.9,29.99,West,277,0.0,6.0,49,0.00,,CLR,0.00,,VWS V13.01,2013-01-16 23:23:00,
2013-01-16 19:25:00,49.1,30.8,29.99,WNW,301,0.0,10.0,49,0.00,,CLR,0.00,,VWS V13.01,2013-01-16 23:25:00,
2013-01-16 19:26:00,49.1,30.8,29.99,WNW,301,0.0,10.0,49,0.00,,CLR,0.00,,VWS V13.01,2013-01-16 23:26:00,
2013-01-16 19:28:00,48.8,31.0,29.99,WNW,301,0.0,4.0,50,0.00,,CLR,0.00,,VWS V13.01,2013-01-16 23:28:00,
2013-01-16 19:30:00,44.9,31.0,30.04,WNW,287,0.0,0.0,58,0.00,,SCT055,0.00,0.00,VWS V14.01,2013-01-16 23:30:00,
2013-01-16 19:31:00,48.6,30.8,30.00,WNW,299,4.0,4.0,50,0.00,,CLR,0.00,,VWS V13.01,2013-01-16 23:31:00,
2013-01-16 19:32:00,48.6,30.8,30.00,WNW,285,6.0,12.0,50,0.00,,CLR,0.00,,VWS V13.01,2013-01-16 23:32:00,
2013-01-16 19:34:00,48.5,31.2,30.00,West,277,6.0,12.0,51,0.00,,CLR,0.00,,VWS V13.01,2013-01-16 23:34:00,
2013-01-16 19:36:00,48.3,31.0,30.00,West,277,0.0,12.0,51,0.00,,CLR,0.00,,VWS V13.01,2013-01-16 23:36:00,
2013-01-16 19:37:00,48.3,31.0,30.00,West,277,0.0,2.0,51,0.00,,CLR,0.00,,VWS V13.01,2013-01-16 23:37:00,
2013-01-16 19:39:00,48.2,31.4,30.00,West,277,0.0,4.0,52,0.00,,CLR,0.00,,VWS V13.01,2013-01-16 23:39:00,
2013-01-16 19:41:00,48.0,31.2,30.00,West,277,0.0,0.0,52,0.00,,CLR,0.00,,VWS V13.01,2013-01-16 23:41:00,
2013-01-16 19:42:00,47.9,31.1,30.00,West,277,0.0,0.0,52,0.00,,CLR,0.00,,VWS V13.01,2013-01-16 23:42:00,
2013-01-16 19:45:00,47.7,31.0,30.00,WNW,287,4.0,4.0,52,0.00,,CLR,0.00,,VWS V13.01,2013-01-16 23:45:00,
2013-01-16 19:47:00,47.6,30.9,30.01,WNW,287,0.0,4.0,52,0.00,,CLR,0.00,,VWS V13.01,2013-01-16 23:47:00,
2013-01-16 19:50:00,47.4,31.1,30.01,WNW,287,0.0,0.0,53,0.00,,CLR,0.00,,VWS V13.01,2013-01-16 23:50:00,
2013-01-16 19:52:00,47.3,31.0,30.01,WNW,287,0.0,0.0,53,0.00,,CLR,0.00,,VWS V13.01,2013-01-16 23:52:00,
2013-01-16 19:55:00,47.1,30.9,30.01,WNW,287,0.0,0.0,53,0.00,,CLR,0.00,,VWS V13.01,2013-01-16 23:55:00,
2013-01-16 19:57:00,47.0,31.2,30.01,WNW,287,0.0,0.0,54,0.00,,CLR,0.00,,VWS V13.01,2013-01-16 23:57:00,
2013-01-16 20:00:00,46.8,31.0,30.01,WNW,287,0.0,0.0,54,0.00,,CLR,0.00,,VWS V13.01,2013-01-17 00:00:00,
2013-01-16 20:02:00,46.8,31.0,30.02,WNW,287,0.0,0.0,54,0.00,,CLR,0.00,,VWS V13.01,2013-01-17 00:02:00,
2013-01-16 20:03:00,46.7,31.0,30.02,WNW,287,0.0,0.0,54,0.00,,CLR,0.00,,VWS V13.01,2013-01-17 00:03:00,
2013-01-16 20:05:00,46.5,31.2,30.02,WNW,287,0.0,0.0,55,0.00,,CLR,0.00,,VWS V13.01,2013-01-17 00:05:00,
2013-01-16 20:07:00,46.4,31.1,30.02,WNW,287,0.0,0.0,55,0.00,,CLR,0.00,,VWS V13.01,2013-01-17 00:07:00,
2013-01-16 20:08:00,46.4,31.1,30.02,WNW,287,0.0,0.0,55,0.00,,CLR,0.00,,VWS V13.01,2013-01-17 00:08:00,
2013-01-16 20:11:00,46.2,30.9,30.02,WNW,287,0.0,0.0,55,0.00,,CLR,0.00,,VWS V13.01,2013-01-17 00:11:00,
2013-01-16 20:13:00,46.1,31.3,30.02,WNW,287,0.0,0.0,56,0.00,,CLR,0.00,,VWS V13.01,2013-01-17 00:13:00,
2013-01-16 20:16:00,45.8,31.0,30.03,WNW,287,0.0,0.0,56,0.00,,CLR,0.00,,VWS V13.01,2013-01-17 00:16:00,
2013-01-16 20:18:00,45.7,30.9,30.03,WNW,287,0.0,0.0,56,0.00,,CLR,0.00,,VWS V13.01,2013-01-17 00:18:00,
2013-01-16 20:22:00,45.5,31.2,30.03,WNW,287,0.0,0.0,57,0.00,,CLR,0.00,,VWS V13.01,2013-01-17 00:22:00,
2013-01-16 20:23:00,45.4,31.1,30.03,WNW,287,0.0,0.0,57,0.00,,CLR,0.00,,VWS V13.01,2013-01-17 00:23:00,
2013-01-16 20:24:00,45.4,31.1,30.03,WNW,287,0.0,0.0,57,0.00,,CLR,0.00,,VWS V13.01,2013-01-17 00:24:00,
2013-01-16 20:27:00,45.2,31.3,30.03,WNW,287,0.0,0.0,58,0.00,,CLR,0.00,,VWS V13.01,2013-01-17 00:27:00,
2013-01-16 20:29:00,45.1,31.2,30.03,WNW,287,0.0,0.0,58,0.00,,CLR,0.00,,VWS V13.01,2013-01-17 00:29:00,
2013-01-16 20:30:00,43.2,29.4,30.08,NNW,335,10.0,12.0,58,0.00,,SCT055,0.00,0.00,VWS V14.01,2013-01-17 00:30:00,
2013-01-16 20:32:00,44.8,30.9,30.04,WNW,287,0.0,0.0,58,0.00,,CLR,0.00,,VWS V13.01,2013-01-17 00:32:00,
2013-01-16 20:34:00,44.6,30.8,30.04,WNW,287,0.0,0.0,58,0.00,,CLR,0.00,,VWS V13.01,2013-01-17 00:34:00,
2013-01-16 20:35:00,44.6,30.8,30.04,WNW,287,0.0,0.0,58,0.00,,CLR,0.00,,VWS V13.01,2013-01-17 00:35:00,
2013-01-16 20:37:00,44.3,30.9,30.04,WNW,287,0.0,0.0,59,0.00,,CLR,0.00,,VWS V13.01,2013-01-17 00:37:00,
2013-01-16 20:39:00,44.2,30.8,30.04,WNW,287,0.0,0.0,59,0.00,,CLR,0.00,,VWS V13.01,2013-01-17 00:39:00,
2013-01-16 20:40:00,44.2,30.8,30.04,WNW,287,0.0,0.0,59,0.00,,CLR,0.00,,VWS V13.01,2013-01-17 00:40:00,
2013-01-16 20:43:00,44.1,30.7,30.04,WNW,287,0.0,0.0,59,0.00,,CLR,0.00,,VWS V13.01,2013-01-17 00:43:00,
2013-01-16 20:45:00,43.9,30.5,30.04,WNW,287,0.0,0.0,59,0.00,,CLR,0.00,,VWS V13.01,2013-01-17 00:45:00,
2013-01-16 20:46:00,43.9,30.9,30.06,WNW,287,0.0,0.0,60,0.00,,CLR,0.00,,VWS V13.01,2013-01-17 00:46:00,
2013-01-16 20:48:00,43.8,30.8,30.06,WNW,287,0.0,6.0,60,0.00,,CLR,0.00,,VWS V13.01,2013-01-17 00:48:00,
2013-01-16 20:50:00,43.6,30.6,30.06,NW,309,8.0,8.0,60,0.00,,CLR,0.00,,VWS V13.01,2013-01-17 00:50:00,
2013-01-16 20:51:00,43.6,30.6,30.06,NW,308,4.0,8.0,60,0.00,,CLR,0.00,,VWS V13.01,2013-01-17 00:51:00,
2013-01-16 20:53:00,43.5,30.5,30.06,NW,309,0.0,6.0,60,0.00,,CLR,0.00,,VWS V13.01,2013-01-17 00:53:00,
2013-01-16 20:55:00,43.5,30.5,30.06,NW,311,2.0,2.0,60,0.00,,CLR,0.00,,VWS V13.01,2013-01-17 00:55:00,
2013-01-16 20:57:00,43.5,30.5,30.06,NW,323,0.0,12.0,60,0.00,,CLR,0.00,,VWS V13.01,2013-01-17 00:57:00,
2013-01-16 20:58:00,43.5,30.5,30.06,NW,323,0.0,4.0,60,0.00,,CLR,0.00,,VWS V13.01,2013-01-17 00:58:00,
2013-01-16 21:00:00,43.5,30.5,30.06,NW,323,0.0,0.0,60,0.00,,CLR,0.00,,VWS V13.01,2013-01-17 01:00:00,
2013-01-16 21:01:00,43.5,30.5,30.07,NW,323,0.0,0.0,60,0.00,,CLR,0.00,,VWS V13.01,2013-01-17 01:01:00,
2013-01-16 21:02:00,43.5,30.5,30.07,NW,323,0.0,0.0,60,0.00,,CLR,0.00,,VWS V13.01,2013-01-17 01:02:00,
2013-01-16 21:03:00,43.3,30.4,30.07,NW,325,2.0,6.0,60,0.00,,CLR,0.00,,VWS V13.01,2013-01-17 01:03:00,
2013-01-16 21:06:00,43.3,30.4,30.07,NNW,329,0.0,12.0,60,0.00,,CLR,0.00,,VWS V13.01,2013-01-17 01:06:00,
2013-01-16 21:08:00,43.3,30.4,30.07,NW,322,0.0,8.0,60,0.00,,CLR,0.00,,VWS V13.01,2013-01-17 01:08:00,
2013-01-16 21:09:00,43.3,30.4,30.07,NW,325,2.0,6.0,60,0.00,,CLR,0.00,,VWS V13.01,2013-01-17 01:09:00,
2013-01-16 21:11:00,43.3,30.4,30.07,NW,325,6.0,6.0,60,0.00,,CLR,0.00,,VWS V13.01,2013-01-17 01:11:00,
2013-01-16 21:13:00,43.3,30.0,30.07,North,4,0.0,12.0,59,0.00,,CLR,0.00,,VWS V13.01,2013-01-17 01:13:00,
2013-01-16 21:15:00,43.3,30.0,30.07,NNW,329,0.0,6.0,59,0.00,,CLR,0.00,,VWS V13.01,2013-01-17 01:15:00,
2013-01-16 21:16:00,43.3,30.0,30.08,NNW,329,0.0,2.0,59,0.00,,CLR,0.00,,VWS V13.01,2013-01-17 01:16:00,
2013-01-16 21:18:00,43.3,30.0,30.08,North,350,6.0,6.0,59,0.00,,CLR,0.00,,VWS V13.01,2013-01-17 01:18:00,
2013-01-16 21:20:00,43.2,29.9,30.08,North,359,0.0,6.0,59,0.00,,CLR,0.00,,VWS V13.01,2013-01-17 01:20:00,
2013-01-16 21:21:00,43.2,29.9,30.08,NNW,346,4.0,6.0,59,0.00,,CLR,0.00,,VWS V13.01,2013-01-17 01:21:00,
2013-01-16 21:22:00,43.2,29.9,30.08,NNW,339,6.0,12.0,59,0.00,,CLR,0.00,,VWS V13.01,2013-01-17 01:22:00,
2013-01-16 21:23:00,43.2,29.9,30.08,North,359,4.0,12.0,59,0.00,,CLR,0.00,,VWS V13.01,2013-01-17 01:23:00,
2013-01-16 21:25:00,43.2,29.4,30.08,NNW,330,4.0,10.0,58,0.00,,CLR,0.00,,VWS V13.01,2013-01-17 01:25:00,
2013-01-16 21:26:00,43.2,29.4,30.08,NNW,333,4.0,10.0,58,0.00,,CLR,0.00,,VWS V13.01,2013-01-17 01:26:00,
2013-01-16 21:27:00,43.2,29.4,30.08,NNW,333,12.0,14.0,58,0.00,,CLR,0.00,,VWS V13.01,2013-01-17 01:27:00,
2013-01-16 21:29:00,43.2,29.4,30.08,North,4,10.0,14.0,58,0.00,,CLR,0.00,,VWS V13.01,2013-01-17 01:29:00,
2013-01-16 21:30:00,41.6,30.0,30.11,North,354,6.0,14.0,63,0.00,,SCT055,0.00,0.00,VWS V14.01,2013-01-17 01:30:00,
2013-01-16 21:31:00,43.2,29.4,30.08,NNW,340,8.0,12.0,58,0.00,,CLR,0.00,,VWS V13.01,2013-01-17 01:31:00,
2013-01-16 21:32:00,43.2,29.4,30.08,North,357,14.0,14.0,58,0.00,,CLR,0.00,,VWS V13.01,2013-01-17 01:32:00,
2013-01-16 21:35:00,43.2,29.4,30.08,NE,44,6.0,16.0,58,0.00,,CLR,0.00,,VWS V13.01,2013-01-17 01:35:00,
2013-01-16 21:36:00,43.2,29.4,30.08,North,350,2.0,16.0,58,0.00,,CLR,0.00,,VWS V13.01,2013-01-17 01:36:00,
2013-01-16 21:37:00,43.2,29.4,30.08,North,0,4.0,10.0,58,0.00,,CLR,0.00,,VWS V13.01,2013-01-17 01:37:00,
2013-01-16 21:40:00,43.2,29.9,30.08,NNW,343,2.0,12.0,59,0.00,,CLR,0.00,,VWS V13.01,2013-01-17 01:40:00,
2013-01-16 21:41:00,43.2,29.9,30.08,North,0,0.0,10.0,59,0.00,,CLR,0.00,,VWS V13.01,2013-01-17 01:41:00,
2013-01-16 21:42:00,43.2,29.9,30.08,North,0,4.0,12.0,59,0.00,,CLR,0.00,,VWS V13.01,2013-01-17 01:42:00,
2013-01-16 21:43:00,43.2,29.9,30.08,North,0,2.0,12.0,59,0.00,,CLR,0.00,,VWS V13.01,2013-01-17 01:43:00,
2013-01-16 21:45:00,43.1,29.8,30.08,North,354,12.0,20.0,59,0.00,,CLR,0.00,,VWS V13.01,2013-01-17 01:45:00,
2013-01-16 21:46:00,43.1,29.8,30.09,North,350,8.0,20.0,59,0.00,,CLR,0.00,,VWS V13.01,2013-01-17 01:46:00,
2013-01-16 21:48:00,43.1,29.8,30.09,NW,326,10.0,26.0,59,0.00,,CLR,0.00,,VWS V13.01,2013-01-17 01:48:00,
2013-01-16 21:51:00,42.9,30.0,30.09,North,3,10.0,22.0,60,0.00,,CLR,0.00,,VWS V13.01,2013-01-17 01:51:00,
2013-01-16 21:53:00,42.9,30.0,30.09,NW,325,4.0,16.0,60,0.00,,CLR,0.00,,VWS V13.01,2013-01-17 01:53:00,
2013-01-16 21:56:00,42.9,30.0,30.09,North,0,2.0,8.0,60,0.00,,CLR,0.00,,VWS V13.01,2013-01-17 01:56:00,
2013-01-16 21:58:00,42.8,29.9,30.09,NW,319,8.0,14.0,60,0.00,,CLR,0.00,,VWS V13.01,2013-01-17 01:58:00,
2013-01-16 22:00:00,39.9,29.9,30.13,North,0,6.0,10.0,67,0.00,,SCT055,0.00,0.00,VWS V14.01,2013-01-17 02:00:00,
2013-01-16 22:01:00,42.8,30.3,30.09,NW,326,4.0,18.0,61,0.00,,CLR,0.00,,VWS V13.01,2013-01-17 02:01:00,
2013-01-16 22:03:00,42.6,30.1,30.09,North,0,2.0,14.0,61,0.00,,CLR,0.00,,VWS V13.01,2013-01-17 02:03:00,
2013-01-16 22:04:00,42.6,30.1,30.09,North,0,2.0,14.0,61,0.00,,CLR,0.00,,VWS V13.01,2013-01-17 02:04:00,
2013-01-16 22:06:00,42.6,30.1,30.09,NNW,339,6.0,12.0,61,0.00,,CLR,0.00,,VWS V13.01,2013-01-17 02:06:00,
2013-01-16 22:07:00,42.5,30.0,30.09,NNW,347,10.0,12.0,61,0.00,,CLR,0.00,,VWS V13.01,2013-01-17 02:07:00,
2013-01-16 22:08:00,42.5,30.0,30.09,NNE,13,4.0,12.0,61,0.00,,CLR,0.00,,VWS V13.01,2013-01-17 02:08:00,
2013-01-16 22:09:00,42.5,30.0,30.09,NW,326,4.0,12.0,61,0.00,,CLR,0.00,,VWS V13.01,2013-01-17 02:09:00,
2013-01-16 22:12:00,42.3,29.8,30.09,North,356,8.0,20.0,61,0.00,,CLR,0.00,,VWS V13.01,2013-01-17 02:12:00,
2013-01-16 22:14:00,42.3,30.2,30.09,NNW,330,8.0,8.0,62,0.00,,CLR,0.00,,VWS V13.01,2013-01-17 02:14:00,
2013-01-16 22:17:00,42.2,30.1,30.11,North,359,12.0,12.0,62,0.00,,CLR,0.00,,VWS V13.01,2013-01-17 02:17:00,
2013-01-16 22:19:00,42.1,30.0,30.11,North,359,6.0,10.0,62,0.00,,CLR,0.00,,VWS V13.01,2013-01-17 02:19:00,
2013-01-16 22:22:00,42.1,30.0,30.11,North,0,6.0,6.0,62,0.00,,CLR,0.00,,VWS V13.01,2013-01-17 02:22:00,
2013-01-16 22:23:00,41.9,29.9,30.11,North,0,0.0,6.0,62,0.00,,CLR,0.00,,VWS V13.01,2013-01-17 02:23:00,
2013-01-16 22:24:00,41.9,29.9,30.11,North,0,0.0,4.0,62,0.00,,CLR,0.00,,VWS V13.01,2013-01-17 02:24:00,
2013-01-16 22:25:00,41.9,29.9,30.11,North,0,0.0,0.0,62,0.00,,CLR,0.00,,VWS V13.01,2013-01-17 02:25:00,
2013-01-16 22:27:00,41.8,30.1,30.11,North,357,4.0,12.0,63,0.00,,CLR,0.00,,VWS V13.01,2013-01-17 02:27:00,
2013-01-16 22:28:00,41.6,30.0,30.11,North,359,4.0,12.0,63,0.00,,CLR,0.00,,VWS V13.01,2013-01-17 02:28:00,
2013-01-16 22:30:00,41.6,30.0,30.11,NNW,337,4.0,10.0,63,0.00,,CLR,0.00,,VWS V13.01,2013-01-17 02:30:00,
2013-01-16 22:31:00,41.6,30.0,30.11,North,8,6.0,14.0,63,0.00,,CLR,0.00,,VWS V13.01,2013-01-17 02:31:00,
2013-01-16 22:32:00,41.5,29.9,30.11,North,354,4.0,14.0,63,0.00,,CLR,0.00,,VWS V13.01,2013-01-17 02:32:00,
2013-01-16 22:33:00,41.5,30.2,30.11,North,0,14.0,14.0,64,0.00,,CLR,0.00,,VWS V13.01,2013-01-17 02:33:00,
2013-01-16 22:34:00,41.3,30.1,30.11,North,0,4.0,14.0,64,0.00,,CLR,0.00,,VWS V13.01,2013-01-17 02:34:00,
2013-01-16 22:36:00,41.3,30.1,30.11,NNW,344,12.0,16.0,64,0.00,,CLR,0.00,,VWS V13.01,2013-01-17 02:36:00,
2013-01-16 22:37:00,41.2,30.0,30.11,North,0,10.0,16.0,64,0.00,,CLR,0.00,,VWS V13.01,2013-01-17 02:37:00,
2013-01-16 22:39:00,41.2,30.0,30.11,North,353,2.0,14.0,64,0.00,,CLR,0.00,,VWS V13.01,2013-01-17 02:39:00,
2013-01-16 22:40:00,41.1,29.9,30.11,North,0,0.0,10.0,64,0.00,,CLR,0.00,,VWS V13.01,2013-01-17 02:40:00,
2013-01-16 22:42:00,41.1,29.9,30.11,North,359,0.0,6.0,64,0.00,,CLR,0.00,,VWS V13.01,2013-01-17 02:42:00,
2013-01-16 22:43:00,40.9,29.7,30.11,North,353,0.0,6.0,64,0.00,,CLR,0.00,,VWS V13.01,2013-01-17 02:43:00,
2013-01-16 22:44:00,40.9,29.7,30.11,North,350,6.0,12.0,64,0.00,,CLR,0.00,,VWS V13.01,2013-01-17 02:44:00,
2013-01-16 22:45:00,40.8,30.0,30.11,NNW,337,4.0,12.0,65,0.00,,CLR,0.00,,VWS V13.01,2013-01-17 02:45:00,
2013-01-16 22:47:00,40.8,30.0,30.13,NNW,332,6.0,10.0,65,0.00,,CLR,0.00,,VWS V13.01,2013-01-17 02:47:00,
2013-01-16 22:48:00,40.6,29.8,30.13,NNW,332,10.0,10.0,65,0.00,,CLR,0.00,,VWS V13.01,2013-01-17 02:48:00,
2013-01-16 22:49:00,40.6,29.8,30.13,NNW,330,6.0,12.0,65,0.00,,CLR,0.00,,VWS V13.01,2013-01-17 02:49:00,
2013-01-16 22:50:00,40.5,29.7,30.13,NNW,330,4.0,12.0,65,0.00,,CLR,0.00,,VWS V13.01,2013-01-17 02:50:00,
2013-01-16 22:52:00,40.5,30.0,30.13,NNW,332,4.0,6.0,66,0.00,,CLR,0.00,,VWS V13.01,2013-01-17 02:52:00,
2013-01-16 22:53:00,40.5,30.0,30.13,NNW,332,4.0,6.0,66,0.00,,CLR,0.00,,VWS V13.01,2013-01-17 02:53:00,
2013-01-16 22:54:00,40.3,29.9,30.13,NNW,333,6.0,6.0,66,0.00,,CLR,0.00,,VWS V13.01,2013-01-17 02:54:00,
2013-01-16 22:55:00,40.2,29.8,30.13,North,357,0.0,12.0,66,0.00,,CLR,0.00,,VWS V13.01,2013-01-17 02:55:00,
2013-01-16 22:57:00,40.2,29.8,30.13,North,0,4.0,6.0,66,0.00,,CLR,0.00,,VWS V13.01,2013-01-17 02:57:00,
2013-01-16 22:58:00,40.1,29.7,30.13,North,0,0.0,6.0,66,0.00,,CLR,0.00,,VWS V13.01,2013-01-17 02:58:00,
2013-01-16 22:59:00,40.1,29.7,30.13,NNW,343,10.0,10.0,66,0.00,,CLR,0.00,,VWS V13.01,2013-01-17 02:59:00,
2013-01-16 23:00:00,37.6,29.1,30.16,NNW,335,0.0,0.0,71,0.00,,SCT055,0.00,0.00,VWS V14.01,2013-01-17 03:00:00,
2013-01-16 23:01:00,39.9,29.9,30.13,North,0,6.0,10.0,67,0.00,,CLR,0.00,,VWS V13.01,2013-01-17 03:01:00,
2013-01-16 23:02:00,39.9,29.9,30.13,North,0,4.0,10.0,67,0.00,,CLR,0.00,,VWS V13.01,2013-01-17 03:02:00,
2013-01-16 23:04:00,39.8,29.8,30.13,North,349,6.0,20.0,67,0.00,,CLR,0.00,,VWS V13.01,2013-01-17 03:04:00,
2013-01-16 23:06:00,39.6,29.6,30.13,North,349,0.0,10.0,67,0.00,,CLR,0.00,,VWS V13.01,2013-01-17 03:06:00,
2013-01-16 23:07:00,39.6,29.6,30.13,North,349,0.0,8.0,67,0.00,,CLR,0.00,,VWS V13.01,2013-01-17 03:07:00,
2013-01-16 23:10:00,39.5,29.8,30.13,North,0,0.0,12.0,68,0.00,,CLR,0.00,,VWS V13.01,2013-01-17 03:10:00,
2013-01-16 23:12:00,39.3,29.6,30.13,North,359,6.0,6.0,68,0.00,,CLR,0.00,,VWS V13.01,2013-01-17 03:12:00,
2013-01-16 23:15:00,39.3,29.6,30.13,NNW,329,8.0,16.0,68,0.00,,CLR,0.00,,VWS V13.01,2013-01-17 03:15:00,
2013-01-16 23:17:00,39.2,29.9,30.13,North,6,0.0,12.0,69,0.00,,CLR,0.00,,VWS V13.01,2013-01-17 03:17:00,
2013-01-16 23:20:00,39.1,29.8,30.13,North,0,0.0,14.0,69,0.00,,CLR,0.00,,VWS V13.01,2013-01-17 03:20:00,
2013-01-16 23:22:00,39.1,29.8,30.13,North,0,0.0,4.0,69,0.00,,CLR,0.00,,VWS V13.01,2013-01-17 03:22:00,
2013-01-16 23:23:00,39.1,29.8,30.13,WNW,296,0.0,4.0,69,0.00,,CLR,0.00,,VWS V13.01,2013-01-17 03:23:00,
2013-01-16 23:25:00,38.9,29.6,30.13,WNW,299,4.0,4.0,69,0.00,,CLR,0.00,,VWS V13.01,2013-01-17 03:25:00,
2013-01-16 23:26:00,38.9,29.6,30.13,North,353,0.0,6.0,69,0.00,,CLR,0.00,,VWS V13.01,2013-01-17 03:26:00,
2013-01-16 23:28:00,38.9,29.6,30.13,North,3,2.0,12.0,69,0.00,,CLR,0.00,,VWS V13.01,2013-01-17 03:28:00,
2013-01-16 23:29:00,38.9,29.6,30.13,NNW,340,2.0,12.0,69,0.00,,CLR,0.00,,VWS V13.01,2013-01-17 03:29:00,
2013-01-16 23:30:00,36.0,27.9,30.16,NNW,336,0.0,0.0,72,0.00,,SCT055,0.00,0.00,VWS V14.01,2013-01-17 03:30:00,
2013-01-16 23:31:00,38.8,29.5,30.14,NNW,343,4.0,4.0,69,0.00,,CLR,0.00,,VWS V13.01,2013-01-17 03:31:00,
2013-01-16 23:33:00,38.8,29.5,30.14,NNW,336,0.0,6.0,69,0.00,,CLR,0.00,,VWS V13.01,2013-01-17 03:33:00,
2013-01-16 23:34:00,38.8,29.5,30.14,NNW,336,0.0,4.0,69,0.00,,CLR,0.00,,VWS V13.01,2013-01-17 03:34:00,
2013-01-16 23:36:00,38.6,29.3,30.14,NNW,336,0.0,0.0,69,0.00,,CLR,0.00,,VWS V13.01,2013-01-17 03:36:00,
2013-01-16 23:37:00,38.6,29.3,30.14,NNW,336,0.0,0.0,69,0.00,,CLR,0.00,,VWS V13.01,2013-01-17 03:37:00,
2013-01-16 23:38:00,38.6,29.3,30.14,NNW,336,0.0,0.0,69,0.00,,CLR,0.00,,VWS V13.01,2013-01-17 03:38:00,
2013-01-16 23:39:00,38.5,29.6,30.14,NNW,336,0.0,0.0,70,0.00,,CLR,0.00,,VWS V13.01,2013-01-17 03:39:00,
2013-01-16 23:42:00,38.5,29.6,30.14,NNW,336,0.0,0.0,70,0.00,,CLR,0.00,,VWS V13.01,2013-01-17 03:42:00,
2013-01-16 23:43:00,38.3,29.4,30.14,NNW,336,0.0,0.0,70,0.00,,CLR,0.00,,VWS V13.01,2013-01-17 03:43:00,
2013-01-16 23:44:00,38.3,29.4,30.14,NNW,336,0.0,0.0,70,0.00,,CLR,0.00,,VWS V13.01,2013-01-17 03:44:00,
2013-01-16 23:47:00,38.3,29.4,30.16,NNW,336,0.0,0.0,70,0.00,,CLR,0.00,,VWS V13.01,2013-01-17 03:47:00,
2013-01-16 23:48:00,38.2,29.3,30.16,NNW,336,0.0,0.0,70,0.00,,CLR,0.00,,VWS V13.01,2013-01-17 03:48:00,
2013-01-16 23:49:00,38.2,29.3,30.16,NNW,336,0.0,0.0,70,0.00,,CLR,0.00,,VWS V13.01,2013-01-17 03:49:00,
2013-01-16 23:50:00,38.2,29.3,30.16,NNW,336,0.0,0.0,70,0.00,,CLR,0.00,,VWS V13.01,2013-01-17 03:50:00,
2013-01-16 23:53:00,38.0,29.5,30.16,NNW,336,0.0,0.0,71,0.00,,CLR,0.00,,VWS V13.01,2013-01-17 03:53:00,
2013-01-16 23:54:00,37.9,29.4,30.16,NNW,336,0.0,0.0,71,0.00,,CLR,0.00,,VWS V13.01,2013-01-17 03:54:00,
2013-01-16 23:55:00,37.9,29.4,30.16,NNW,336,0.0,0.0,71,0.00,,CLR,0.00,,VWS V13.01,2013-01-17 03:55:00,
2013-01-16 23:58:00,37.8,29.3,30.16,NNW,336,0.0,0.0,71,0.00,,CLR,0.00,,VWS V13.01,2013-01-17 03:58:00,
2013-01-16 23:59:00,37.6,29.1,30.16,NNW,336,0.0,0.0,71,0.00,,CLR,0.00,,VWS V13.01,2013-01-17 03:59:00,